WA4BPS Weather Reports


time (UTC)temp
F
wind
direction
speed
knots
gust
knots
rain 1hr
in
rain 24hr
in
rain mn
in
humidity
%
barometer
mb
20260905070235 79 96 1.7 2.6 0.00 0.00 0.00 74 1012.0
20260905070206 79 95 1.7 2.6 0.00 0.00 0.00 74 1012.0
20260905065941 79 96 0.9 2.6 0.00 0.00 0.00 74 1012.0
20260905065839 79 96 0.0 2.6 0.00 0.00 0.00 74 1012.0
20260905065758 79 96 0.0 2.6 0.00 0.00 0.00 73 1012.1
20260905065655 79 96 0.0 2.6 0.00 0.00 0.00 74 1012.1
20260905065554 79 96 0.0 2.6 0.00 0.00 0.00 73 1012.1
20260905065430 79 96 0.0 2.6 0.00 0.00 0.00 73 1012.1
20260905065333 79 95 0.0 2.6 0.00 0.00 0.00 73 1012.1
20260905065231 79 95 1.7 2.6 0.00 0.00 0.00 73 1012.1
20260905065130 79 93 0.9 2.6 0.00 0.00 0.00 73 1012.1
20260905065028 79 95 1.7 2.6 0.00 0.00 0.00 73 1012.1
20260905064927 79 93 1.7 2.6 0.00 0.00 0.00 73 1012.1
20260905064824 79 96 1.7 2.6 0.00 0.00 0.00 73 1012.1
20260905064727 79 96 1.7 2.6 0.00 0.00 0.00 73 1012.1
20260905064659 79 96 1.7 2.6 0.00 0.00 0.00 74 1012.1
20260905064556 79 96 1.7 2.6 0.00 0.00 0.00 74 1012.1
20260905064434 79 95 0.9 2.6 0.00 0.00 0.00 74 1012.1
20260905064333 79 95 0.9 2.6 0.00 0.00 0.00 74 1012.1
20260905064231 79 95 1.7 2.6 0.00 0.00 0.00 74 1012.3
20260905064150 79 93 1.7 2.6 0.00 0.00 0.00 74 1012.3
20260905064029 79 95 0.9 2.6 0.00 0.00 0.00 74 1012.3
20260905063929 79 95 0.9 2.6 0.00 0.00 0.00 74 1012.3
20260905063830 79 95 1.7 2.6 0.00 0.00 0.00 74 1012.3
20260905063728 79 93 0.9 1.7 0.00 0.00 0.00 74 1012.3
20260905063627 79 93 1.7 1.7 0.00 0.00 0.00 74 1012.3
20260905063525 79 93 0.9 1.7 0.00 0.00 0.00 74 1012.3
20260905063424 79 93 0.0 1.7 0.00 0.00 0.00 74 1012.3
20260905063343 79 93 0.0 1.7 0.00 0.00 0.00 74 1012.3
20260905063236 79 92 0.0 1.7 0.00 0.00 0.00 73 1012.3
20260905063147 79 93 0.0 1.7 0.00 0.00 0.00 73 1012.3
20260905063042 79 92 0.9 1.7 0.00 0.00 0.00 73 1012.3
20260905062941 79 93 0.9 1.7 0.00 0.00 0.00 73 1012.3
20260905062839 79 93 0.9 1.7 0.00 0.00 0.00 73 1012.3
20260905062738 79 93 0.9 2.6 0.00 0.00 0.00 73 1012.4
20260905062636 79 93 1.7 2.6 0.00 0.00 0.00 73 1012.4
20260905062534 79 93 1.7 2.6 0.00 0.00 0.00 73 1012.4
20260905062436 79 93 1.7 2.6 0.00 0.00 0.00 73 1012.4
20260905062355 79 95 0.9 2.6 0.00 0.00 0.00 72 1012.4
20260905062232 79 93 0.0 2.6 0.00 0.00 0.00 72 1012.4
20260905062131 79 93 0.9 2.6 0.00 0.00 0.00 72 1012.4
20260905062029 79 93 0.9 2.6 0.00 0.00 0.00 72 1012.4
20260905061928 79 93 0.9 2.6 0.00 0.00 0.00 72 1012.4
20260905061826 79 93 1.7 2.6 0.00 0.00 0.00 72 1012.4
20260905061738 79 93 1.7 1.7 0.00 0.00 0.00 72 1012.4
20260905061647 79 93 0.9 1.7 0.00 0.00 0.00 72 1012.4
20260905061525 79 93 0.0 1.7 0.00 0.00 0.00 72 1012.4
20260905061424 79 92 0.9 2.6 0.00 0.00 0.00 72 1012.4
20260905061343 79 96 0.0 2.6 0.00 0.00 0.00 72 1012.4
20260905061241 79 96 0.0 2.6 0.00 0.00 0.00 72 1012.4
20260905061139 80 97 0.0 2.6 0.00 0.00 0.00 73 1012.4
20260905061038 80 95 0.0 2.6 0.00 0.00 0.00 73 1012.4
20260905061001 80 96 0.0 2.6 0.00 0.00 0.00 73 1012.4
20260905060837 80 97 0.9 2.6 0.00 0.00 0.00 73 1012.4
20260905060736 80 97 0.9 2.6 0.00 0.00 0.00 73 1012.4
20260905060655 80 96 1.7 2.6 0.00 0.00 0.00 73 1012.4
20260905060531 80 96 0.9 2.6 0.00 0.00 0.00 73 1012.4
20260905060430 80 97 1.7 2.6 0.00 0.00 0.00 72 1012.4
20260905060326 80 97 1.7 2.6 0.00 0.00 0.00 72 1012.4
20260905060236 80 97 1.7 2.6 0.00 0.00 0.00 72 1012.4
20260905060148 80 99 0.9 2.6 0.00 0.00 0.00 72 1012.4
20260905060025 80 97 0.9 2.6 0.00 0.00 0.00 72 1012.4
20260905055943 80 95 0.9 2.6 0.00 0.00 0.00 72 1012.4
20260905055842 80 97 0.9 2.6 0.00 0.00 0.00 72 1012.4
20260905055740 80 96 1.7 2.6 0.00 0.00 0.00 72 1012.5
20260905055639 80 97 1.7 2.6 0.00 0.00 0.00 72 1012.5
20260905055538 80 97 0.9 2.6 0.00 0.00 0.00 72 1012.5
20260905055440 80 97 0.9 2.6 0.00 0.00 0.00 72 1012.5
20260905055339 80 97 1.7 3.5 0.00 0.00 0.00 72 1012.5
20260905055257 80 97 1.7 3.5 0.00 0.00 0.00 72 1012.5
20260905055133 80 97 1.7 3.5 0.00 0.00 0.00 72 1012.5
20260905055032 80 97 1.7 3.5 0.00 0.00 0.00 72 1012.5
20260905054930 80 97 2.6 3.5 0.00 0.00 0.00 73 1012.5
20260905054828 80 99 2.6 3.5 0.00 0.00 0.00 73 1012.5
20260905054735 80 97 1.7 3.5 0.00 0.00 0.00 72 1012.5
20260905054649 80 97 1.7 4.3 0.00 0.00 0.00 72 1012.5
20260905054546 80 97 2.6 4.3 0.00 0.00 0.00 72 1012.5
20260905054505 80 97 1.7 4.3 0.00 0.00 0.00 72 1012.5
20260905054403 80 97 1.7 4.3 0.00 0.00 0.00 72 1012.5
20260905054240 80 97 1.7 4.3 0.00 0.00 0.00 72 1012.5
20260905054138 80 95 1.7 4.3 0.00 0.00 0.00 72 1012.5
20260905054037 80 97 1.7 4.3 0.00 0.00 0.00 72 1012.5
20260905053935 80 97 2.6 4.3 0.00 0.00 0.00 72 1012.5
20260905053837 80 96 3.5 4.3 0.00 0.00 0.00 72 1012.5
20260905053735 80 97 3.5 4.3 0.00 0.00 0.00 73 1012.5
20260905053634 80 97 2.6 4.3 0.00 0.00 0.00 72 1012.5
20260905053532 80 93 3.5 4.3 0.00 0.00 0.00 72 1012.5
20260905053431 80 97 3.5 4.3 0.00 0.00 0.00 72 1012.5
20260905053328 80 90 3.5 4.3 0.00 0.00 0.00 72 1012.5
20260905053227 80 97 2.6 4.3 0.00 0.00 0.00 72 1012.5
20260905053157 80 96 2.6 4.3 0.00 0.00 0.00 72 1012.5
20260905053038 80 95 2.6 4.3 0.00 0.00 0.00 72 1012.5
20260905052937 80 96 1.7 4.3 0.00 0.00 0.00 72 1012.5
20260905052834 80 96 1.7 4.3 0.00 0.00 0.00 72 1012.5
20260905052733 80 96 2.6 4.3 0.00 0.00 0.00 72 1012.4
20260905052633 80 97 2.6 4.3 0.00 0.00 0.00 72 1012.4
20260905052530 80 97 1.7 4.3 0.00 0.00 0.00 71 1012.4
20260905052449 80 96 2.6 4.3 0.00 0.00 0.00 71 1012.4
20260905052351 80 95 3.5 4.3 0.00 0.00 0.00 71 1012.4
20260905052229 80 96 2.6 4.3 0.00 0.00 0.00 71 1012.4
20260905052126 80 96 3.5 4.3 0.00 0.00 0.00 71 1012.4
20260905052024 80 95 3.5 4.3 0.00 0.00 0.00 71 1012.4
20260905051942 80 96 3.5 4.3 0.00 0.00 0.00 71 1012.4
20260905051901 80 96 2.6 4.3 0.00 0.00 0.00 71 1012.4
20260905051759 80 96 2.6 4.3 0.00 0.00 0.00 71 1012.4
20260905051646 80 96 2.6 5.2 0.00 0.00 0.00 71 1012.4
20260905051543 80 96 1.7 5.2 0.00 0.00 0.00 71 1012.4
20260905051445 80 97 2.6 5.2 0.00 0.00 0.00 72 1012.4
20260905051346 80 96 2.6 5.2 0.00 0.00 0.00 71 1012.4
20260905051224 80 96 3.5 5.2 0.00 0.00 0.00 71 1012.8
20260905051143 80 96 2.6 5.2 0.00 0.00 0.00 71 1012.8
20260905051041 80 95 3.5 5.2 0.00 0.00 0.00 71 1012.8
20260905050940 80 95 2.6 5.2 0.00 0.00 0.00 72 1012.8
20260905050839 80 93 2.6 5.2 0.00 0.00 0.00 72 1012.8
20260905050737 80 93 3.5 5.2 0.00 0.00 0.00 71 1012.8
20260905050639 80 90 3.5 5.2 0.00 0.00 0.00 71 1012.8
20260905050536 80 86 3.5 5.2 0.00 0.00 0.00 72 1012.8
20260905050435 80 86 3.5 5.2 0.00 0.00 0.00 71 1012.8
20260905050334 80 86 2.6 5.2 0.00 0.00 0.00 71 1012.8
20260905050243 80 86 4.3 5.2 0.00 0.00 0.00 71 1012.8
20260905050153 80 85 3.5 5.2 0.00 0.00 0.00 71 1012.8
20260905050030 80 80 4.3 5.2 0.00 0.00 0.00 71 1012.8
20260905045932 80 83 4.3 5.2 0.00 0.00 0.00 71 1012.8
20260905045831 80 83 4.3 5.2 0.00 0.00 0.00 71 1012.8
20260905045729 80 82 4.3 5.2 0.00 0.00 0.00 71 1012.8
20260905045627 80 78 3.5 5.2 0.00 0.00 0.00 71 1012.8
20260905045545 80 79 3.5 5.2 0.00 0.00 0.00 71 1012.8
20260905045503 80 79 3.5 5.2 0.00 0.00 0.00 71 1012.8
20260905045401 80 79 4.3 5.2 0.00 0.00 0.00 71 1012.8
20260905045237 80 79 3.5 5.2 0.00 0.00 0.00 71 1012.8
20260905045140 80 78 2.6 5.2 0.00 0.00 0.00 71 1012.8
20260905045039 80 78 2.6 5.2 0.00 0.00 0.00 71 1012.8
20260905044937 80 78 3.5 5.2 0.00 0.00 0.00 71 1012.8
20260905044836 80 78 3.5 5.2 0.00 0.00 0.00 71 1012.8
20260905044804 80 78 3.5 5.2 0.00 0.00 0.00 71 1012.8
20260905044651 80 78 4.3 6.1 0.00 0.00 0.00 71 1012.8
20260905044529 80 76 3.5 6.1 0.00 0.00 0.00 71 1012.8
20260905044432 80 76 3.5 6.1 0.00 0.00 0.00 71 1012.8
20260905044330 80 78 4.3 6.1 0.00 0.00 0.00 70 1012.8
20260905044226 80 78 2.6 6.1 0.00 0.00 0.00 70 1012.8
20260905044124 80 78 3.5 6.1 0.00 0.00 0.00 70 1012.8
20260905044042 80 75 2.6 6.1 0.00 0.00 0.00 70 1012.8
20260905044000 80 78 2.6 6.1 0.00 0.00 0.00 71 1012.8
20260905043837 80 76 3.5 6.1 0.00 0.00 0.00 71 1012.8
20260905043736 80 78 4.3 6.1 0.00 0.00 0.00 70 1012.8
20260905043640 80 76 2.6 5.2 0.00 0.00 0.00 71 1012.8
20260905043539 80 75 2.6 5.2 0.00 0.00 0.00 70 1012.8
20260905043438 80 75 4.3 5.2 0.00 0.00 0.00 70 1012.8
20260905043336 80 75 4.3 5.2 0.00 0.00 0.00 70 1012.8
20260905043254 80 73 3.5 5.2 0.00 0.00 0.00 70 1012.8
20260905043205 80 75 3.5 6.1 0.00 0.00 0.00 70 1012.8
20260905043041 80 69 4.3 6.1 0.00 0.00 0.00 70 1012.8
20260905043000 79 73 4.3 6.1 0.00 0.00 0.00 70 1012.8
20260905042841 79 72 3.5 6.1 0.00 0.00 0.00 70 1012.8
20260905042800 79 72 4.3 6.1 0.00 0.00 0.00 70 1012.8
20260905042642 79 71 4.3 6.1 0.00 0.00 0.00 70 1012.8
20260905042542 79 69 5.2 6.1 0.00 0.00 0.00 70 1012.8
20260905042440 79 71 4.3 6.1 0.00 0.00 0.00 70 1012.8
20260905042338 79 71 5.2 6.1 0.00 0.00 0.00 70 1012.8
20260905042236 80 71 4.3 5.2 0.00 0.00 0.00 70 1012.8
20260905042139 80 71 4.3 5.2 0.00 0.00 0.00 69 1012.8
20260905042037 80 71 3.5 5.2 0.00 0.00 0.00 69 1012.8
20260905041935 80 71 3.5 5.2 0.00 0.00 0.00 70 1012.8
20260905041832 80 71 3.5 5.2 0.00 0.00 0.00 70 1012.8
20260905041741 80 71 4.3 5.2 0.00 0.00 0.00 71 1012.8
20260905041649 80 69 5.2 5.2 0.00 0.00 0.00 71 1012.8
20260905041526 80 71 5.2 5.2 0.00 0.00 0.00 71 1012.8
20260905041424 80 69 3.5 5.2 0.00 0.00 0.00 71 1012.8
20260905041346 80 69 4.3 5.2 0.00 0.00 0.00 70 1012.8
20260905041305 80 68 5.2 5.2 0.00 0.00 0.00 70 1012.9
20260905041141 80 69 4.3 5.2 0.00 0.00 0.00 70 1012.9
20260905041101 80 69 4.3 5.2 0.00 0.00 0.00 70 1012.9
20260905040938 80 71 5.2 5.2 0.00 0.00 0.00 70 1012.9
20260905040856 80 71 4.3 5.2 0.00 0.00 0.00 70 1012.9
20260905040734 80 69 4.3 5.2 0.00 0.00 0.00 69 1012.9
20260905040652 80 69 4.3 5.2 0.00 0.00 0.00 69 1012.9
20260905040528 80 69 4.3 5.2 0.00 0.00 0.00 69 1012.9
20260905040425 80 69 4.3 5.2 0.00 0.00 0.00 69 1012.9
20260905040347 80 66 4.3 5.2 0.00 0.00 0.00 70 1012.9
20260905040244 80 68 4.3 5.2 0.00 0.00 0.00 70 1012.9
20260905040155 80 69 4.3 5.2 0.00 0.00 0.00 70 1012.9
20260905040050 80 66 4.3 5.2 0.00 0.00 0.00 70 1012.9
20260905035930 80 69 4.3 5.2 0.00 0.00 0.00 70 1012.9
20260905035829 80 68 4.3 5.2 0.00 0.00 0.00 70 1012.9
20260905035726 80 69 3.5 5.2 0.00 0.00 0.00 70 1013.1
20260905035625 80 68 4.3 5.2 0.00 0.00 0.00 70 1013.1
20260905035542 80 69 4.3 5.2 0.00 0.00 0.00 71 1013.1
20260905035442 80 69 4.3 5.2 0.00 0.00 0.00 71 1013.1
20260905035340 80 66 3.5 5.2 0.00 0.00 0.00 70 1013.1
20260905035239 80 69 4.3 5.2 0.00 0.00 0.00 71 1013.1
20260905035138 80 68 5.2 5.2 0.00 0.00 0.00 71 1013.1
20260905035036 80 69 4.3 5.2 0.00 0.00 0.00 71 1013.1
20260905034935 80 66 3.5 5.2 0.00 0.00 0.00 71 1013.1
20260905034833 80 62 5.2 5.2 0.00 0.00 0.00 71 1013.1
20260905034726 80 61 3.5 5.2 0.00 0.00 0.00 71 1013.1
20260905034603 80 61 4.3 5.2 0.00 0.00 0.00 71 1013.1
20260905034443 80 59 4.3 5.2 0.00 0.00 0.00 71 1013.1
20260905034339 80 59 4.3 5.2 0.00 0.00 0.00 70 1013.1
20260905034259 80 58 4.3 5.2 0.00 0.00 0.00 70 1013.2
20260905034135 80 59 4.3 5.2 0.00 0.00 0.00 71 1013.2
20260905034033 80 59 4.3 6.1 0.00 0.00 0.00 71 1013.2
20260905033931 80 59 5.2 6.1 0.00 0.00 0.00 71 1013.2
20260905033833 80 59 4.3 6.1 0.00 0.00 0.00 71 1013.2
20260905033731 80 59 3.5 6.1 0.00 0.00 0.00 71 1013.2
20260905033629 80 59 5.2 6.1 0.00 0.00 0.00 71 1013.2
20260905033549 80 52 4.3 6.1 0.00 0.00 0.00 71 1013.2
20260905033425 80 52 4.3 6.1 0.00 0.00 0.00 71 1013.2
20260905033344 80 49 4.3 6.1 0.00 0.00 0.00 71 1013.2
20260905033241 80 52 4.3 6.1 0.00 0.00 0.00 71 1013.2
20260905033212 80 52 3.5 6.1 0.00 0.00 0.00 71 1013.2
20260905033027 80 49 4.3 5.2 0.00 0.00 0.00 71 1013.2
20260905032949 80 51 3.5 5.2 0.00 0.00 0.00 71 1013.2
20260905032826 80 51 4.3 5.2 0.00 0.00 0.00 71 1013.2
20260905032725 80 51 3.5 5.2 0.00 0.00 0.00 70 1013.3
20260905032643 80 48 4.3 5.2 0.00 0.00 0.00 70 1013.3
20260905032541 80 51 4.3 5.2 0.00 0.00 0.00 70 1013.3
20260905032500 80 51 3.5 5.2 0.00 0.00 0.00 69 1013.3
20260905032337 80 51 4.3 5.2 0.00 0.00 0.00 69 1013.3
20260905032236 80 49 3.5 5.2 0.00 0.00 0.00 69 1013.3
20260905032138 80 51 4.3 5.2 0.00 0.00 0.00 69 1013.3
20260905032036 80 51 4.3 5.2 0.00 0.00 0.00 70 1013.3
20260905031957 80 40 4.3 5.2 0.00 0.00 0.00 70 1013.3
20260905031835 80 40 4.3 5.2 0.00 0.00 0.00 70 1013.3
20260905031753 80 34 3.5 4.3 0.00 0.00 0.00 70 1013.3
20260905031723 80 37 1.7 2.6 0.00 0.00 0.00 70 1013.3
20260905031541 80 37 1.7 2.6 0.00 0.00 0.00 70 1013.3
20260905031501 80 37 1.7 2.6 0.00 0.00 0.00 70 1013.3
20260905031343 80 37 1.7 4.3 0.00 0.00 0.00 70 1013.3
20260905031243 80 37 1.7 4.3 0.00 0.00 0.00 70 1012.6
20260905031124 80 37 1.7 4.3 0.00 0.00 0.00 70 1012.6
20260905031026 80 34 1.7 4.3 0.00 0.00 0.00 70 1012.6
20260905030929 80 35 1.7 4.3 0.00 0.00 0.00 70 1012.6
20260905030829 80 35 2.6 4.3 0.00 0.00 0.00 70 1012.6
20260905030733 80 37 1.7 4.3 0.00 0.00 0.00 70 1012.6
20260905030633 80 37 1.7 4.3 0.00 0.00 0.00 70 1012.6
20260905030552 80 37 2.6 4.3 0.00 0.00 0.00 70 1012.6
20260905030431 80 37 2.6 4.3 0.00 0.00 0.00 70 1012.6
20260905030330 80 37 2.6 4.3 0.00 0.00 0.00 69 1012.6
20260905030230 80 35 2.6 4.3 0.00 0.00 0.00 69 1012.6
20260905030201 80 37 2.6 4.3 0.00 0.00 0.00 68 1012.6
20260905030037 80 38 2.6 4.3 0.00 0.00 0.00 68 1012.6
20260905025942 80 38 2.6 4.3 0.00 0.00 0.00 68 1012.6
20260905025841 80 35 2.6 4.3 0.00 0.00 0.00 68 1012.6
20260905025739 80 34 2.6 4.3 0.00 0.00 0.00 68 1012.6
20260905025639 80 38 2.6 4.3 0.00 0.00 0.00 68 1012.6
20260905025537 80 37 2.6 4.3 0.00 0.00 0.00 68 1012.6
20260905025456 80 38 2.6 4.3 0.00 0.00 0.00 68 1012.6
20260905025333 80 34 2.6 4.3 0.00 0.00 0.00 69 1012.6
20260905025235 80 38 3.5 4.3 0.00 0.00 0.00 69 1012.6
20260905025134 80 38 2.6 4.3 0.00 0.00 0.00 69 1012.6
20260905025032 80 38 2.6 4.3 0.00 0.00 0.00 68 1012.6
20260905024931 81 35 2.6 4.3 0.00 0.00 0.00 69 1012.6
20260905024849 81 35 2.6 4.3 0.00 0.00 0.00 69 1012.6
20260905024747 81 37 2.6 2.6 0.00 0.00 0.00 69 1012.6
20260905024717 81 35 2.6 2.6 0.00 0.00 0.00 69 1012.6
20260905024616 81 37 2.6 2.6 0.00 0.00 0.00 69 1012.6
20260905024444 81 37 2.6 5.2 0.00 0.00 0.00 69 1012.6
20260905024401 81 38 3.5 5.2 0.00 0.00 0.00 70 1012.6
20260905024240 81 38 4.3 5.2 0.00 0.00 0.00 70 1012.7
20260905024138 81 37 4.3 5.2 0.00 0.00 0.00 69 1012.7
20260905024041 81 38 4.3 5.2 0.00 0.00 0.00 69 1012.7
20260905023941 81 38 4.3 5.2 0.00 0.00 0.00 69 1012.7
20260905023839 81 38 3.5 4.3 0.00 0.00 0.00 69 1012.7
20260905023738 81 37 3.5 4.3 0.00 0.00 0.00 69 1012.7
20260905023656 81 37 3.5 4.3 0.00 0.00 0.00 69 1012.7
20260905023555 81 37 3.5 4.3 0.00 0.00 0.00 69 1012.7
20260905023451 81 37 4.3 4.3 0.00 0.00 0.00 69 1012.7
20260905023329 81 37 3.5 4.3 0.00 0.00 0.00 69 1012.7
20260905023231 81 38 2.6 4.3 0.00 0.00 0.00 69 1012.7
20260905023202 81 37 2.6 4.3 0.00 0.00 0.00 69 1012.7
20260905023038 81 38 2.6 4.3 0.00 0.00 0.00 69 1012.7
20260905022937 81 32 1.7 4.3 0.00 0.00 0.00 69 1012.7
20260905022834 81 37 2.6 4.3 0.00 0.00 0.00 69 1012.7
20260905022733 81 37 2.6 4.3 0.00 0.00 0.00 69 1012.6
20260905022633 81 38 3.5 4.3 0.00 0.00 0.00 69 1012.6
20260905022535 81 35 2.6 4.3 0.00 0.00 0.00 69 1012.6
20260905022433 81 34 1.7 4.3 0.00 0.00 0.00 69 1012.6
20260905022331 81 34 1.7 4.3 0.00 0.00 0.00 69 1012.6
20260905022230 81 34 2.6 4.3 0.00 0.00 0.00 69 1012.6
20260905022129 81 34 1.7 4.3 0.00 0.00 0.00 68 1012.6
20260905022048 81 32 1.7 4.3 0.00 0.00 0.00 69 1012.6
20260905021945 81 34 2.6 4.3 0.00 0.00 0.00 69 1012.6
20260905021904 81 34 2.6 4.3 0.00 0.00 0.00 69 1012.6
20260905021801 81 24 2.6 4.3 0.00 0.00 0.00 69 1012.6
20260905021714 81 30 2.6 4.3 0.00 0.00 0.00 69 1012.6
20260905021531 81 27 2.6 3.5 0.00 0.00 0.00 68 1012.6
20260905021450 81 28 2.6 3.5 0.00 0.00 0.00 68 1012.6
20260905021327 81 28 2.6 4.3 0.00 0.00 0.00 69 1012.6
20260905021245 81 28 1.7 4.3 0.00 0.00 0.00 69 1012.7
20260905021204 81 28 1.7 4.3 0.00 0.00 0.00 69 1012.7
20260905021040 81 28 1.7 4.3 0.00 0.00 0.00 69 1012.7
20260905020939 81 28 1.7 4.3 0.00 0.00 0.00 68 1012.7
20260905020837 81 27 1.7 4.3 0.00 0.00 0.00 68 1012.7
20260905020738 81 28 2.6 4.3 0.00 0.00 0.00 68 1012.7
20260905020637 81 27 2.6 4.3 0.00 0.00 0.00 68 1012.7
20260905020556 81 28 3.5 4.3 0.00 0.00 0.00 67 1012.7
20260905020432 81 25 3.5 4.3 0.00 0.00 0.00 67 1012.7
20260905020331 81 27 2.6 4.3 0.00 0.00 0.00 67 1012.7
20260905020238 81 27 2.6 4.3 0.00 0.00 0.00 68 1012.7
20260905020148 81 28 2.6 4.3 0.00 0.00 0.00 67 1012.7
20260905020026 81 27 2.6 4.3 0.00 0.00 0.00 67 1012.7
20260905015949 81 27 2.6 4.3 0.00 0.00 0.00 67 1012.7
20260905015826 81 28 2.6 4.3 0.00 0.00 0.00 66 1012.7
20260905015725 81 27 2.6 4.3 0.00 0.00 0.00 66 1012.5
20260905015643 81 25 2.6 4.3 0.00 0.00 0.00 66 1012.5
20260905015541 81 28 2.6 4.3 0.00 0.00 0.00 65 1012.5
20260905015439 81 25 3.5 4.3 0.00 0.00 0.00 66 1012.5
20260905015336 81 28 3.5 4.3 0.00 0.00 0.00 66 1012.5
20260905015236 81 28 3.5 4.3 0.00 0.00 0.00 66 1012.5
20260905015137 81 24 2.6 4.3 0.00 0.00 0.00 66 1012.5
20260905015036 81 28 3.5 4.3 0.00 0.00 0.00 66 1012.5
20260905014934 81 28 3.5 4.3 0.00 0.00 0.00 66 1012.5
20260905014851 81 28 2.6 4.3 0.00 0.00 0.00 66 1012.5
20260905014729 82 28 2.6 4.3 0.00 0.00 0.00 66 1012.5
20260905014659 82 25 3.5 4.3 0.00 0.00 0.00 66 1012.5
20260905014537 82 27 3.5 4.3 0.00 0.00 0.00 66 1012.5
20260905014440 82 27 3.5 4.3 0.00 0.00 0.00 67 1012.5
20260905014339 82 28 3.5 4.3 0.00 0.00 0.00 67 1012.5
20260905014258 82 27 3.5 4.3 0.00 0.00 0.00 67 1012.5
20260905014136 82 24 3.5 4.3 0.00 0.00 0.00 68 1012.5
20260905014038 82 25 2.6 4.3 0.00 0.00 0.00 68 1012.5
20260905013957 82 27 3.5 4.3 0.00 0.00 0.00 68 1012.5
20260905013834 82 24 3.5 5.2 0.00 0.00 0.00 68 1012.5
20260905013735 82 24 2.6 5.2 0.00 0.00 0.00 67 1012.5
20260905013637 82 27 2.6 5.2 0.00 0.00 0.00 68 1012.5
20260905013536 82 24 1.7 5.2 0.00 0.00 0.00 68 1012.5
20260905013435 82 24 1.7 5.2 0.00 0.00 0.00 68 1012.5
20260905013334 82 25 2.6 5.2 0.00 0.00 0.00 68 1012.5
20260905013241 82 23 2.6 5.2 0.00 0.00 0.00 67 1012.5
20260905013151 82 24 2.6 5.2 0.00 0.00 0.00 67 1012.5
20260905013027 82 25 3.5 5.2 0.00 0.00 0.00 67 1012.5
20260905012929 82 25 4.3 5.2 0.00 0.00 0.00 67 1012.5
20260905012828 82 25 4.3 5.2 0.00 0.00 0.00 66 1012.5
20260905012727 82 24 4.3 5.2 0.00 0.00 0.00 66 1012.4
20260905012626 82 23 3.5 5.2 0.00 0.00 0.00 66 1012.4
20260905012548 82 23 3.5 5.2 0.00 0.00 0.00 65 1012.4
20260905012425 82 24 4.3 5.2 0.00 0.00 0.00 65 1012.4
20260905012343 82 23 4.3 5.2 0.00 0.00 0.00 65 1012.4
20260905012225 82 23 4.3 5.2 0.00 0.00 0.00 65 1012.4
20260905012143 82 23 3.5 5.2 0.00 0.00 0.00 65 1012.4
20260905012042 82 23 2.6 5.2 0.00 0.00 0.00 65 1012.4
20260905011940 82 23 2.6 5.2 0.00 0.00 0.00 65 1012.4
20260905011839 82 23 3.5 5.2 0.00 0.00 0.00 65 1012.4
20260905011757 82 23 3.5 5.2 0.00 0.00 0.00 65 1012.4
20260905011727 82 23 3.5 5.2 0.00 0.00 0.00 64 1012.4
20260905011541 82 23 3.5 5.2 0.00 0.00 0.00 64 1012.4
20260905011424 82 24 2.6 5.2 0.00 0.00 0.00 64 1012.4
20260905011343 82 23 2.6 5.2 0.00 0.00 0.00 64 1012.4
20260905011240 82 21 2.6 5.2 0.00 0.00 0.00 64 1012.5
20260905011139 82 23 3.5 5.2 0.00 0.00 0.00 64 1012.5
20260905011037 82 23 2.6 5.2 0.00 0.00 0.00 64 1012.5
20260905010934 82 21 3.5 5.2 0.00 0.00 0.00 64 1012.5
20260905010832 82 23 2.6 5.2 0.00 0.00 0.00 64 1012.5
20260905010731 82 20 2.6 5.2 0.00 0.00 0.00 64 1012.5
20260905010635 82 21 3.5 5.2 0.00 0.00 0.00 64 1012.5
20260905010532 82 23 3.5 5.2 0.00 0.00 0.00 64 1012.5
20260905010430 82 23 4.3 5.2 0.00 0.00 0.00 64 1012.5
20260905010328 82 23 2.6 5.2 0.00 0.00 0.00 64 1012.5
20260905010237 82 20 4.3 5.2 0.00 0.00 0.00 65 1012.5
20260905010148 82 17 4.3 5.2 0.00 0.00 0.00 65 1012.5
20260905010024 82 13 2.6 5.2 0.00 0.00 0.00 65 1012.5
20260905005927 82 14 2.6 5.2 0.00 0.00 0.00 65 1012.5
20260905005824 82 14 3.5 5.2 0.00 0.00 0.00 65 1012.5
20260905005743 82 14 3.5 5.2 0.00 0.00 0.00 65 1012.5
20260905005640 82 14 2.6 5.2 0.00 0.00 0.00 65 1012.5
20260905005540 82 11 3.5 5.2 0.00 0.00 0.00 64 1012.5
20260905005439 82 13 2.6 5.2 0.00 0.00 0.00 64 1012.5
20260905005338 82 14 2.6 5.2 0.00 0.00 0.00 64 1012.5
20260905005257 82 14 3.5 5.2 0.00 0.00 0.00 65 1012.5
20260905005139 82 14 2.6 5.2 0.00 0.00 0.00 65 1012.5
20260905005037 82 14 3.5 5.2 0.00 0.00 0.00 65 1012.5
20260905004937 82 13 3.5 5.2 0.00 0.00 0.00 65 1012.5
20260905004836 82 8 3.5 5.2 0.00 0.00 0.00 64 1012.5
20260905004734 82 13 3.5 5.2 0.00 0.00 0.00 64 1012.5
20260905004704 82 13 2.6 5.2 0.00 0.00 0.00 64 1012.5
20260905004543 82 13 3.5 5.2 0.00 0.00 0.00 64 1012.5
20260905004441 82 11 3.5 5.2 0.00 0.00 0.00 64 1012.5
20260905004404 82 10 3.5 5.2 0.00 0.00 0.00 64 1012.5
20260905004301 82 11 3.5 5.2 0.00 0.00 0.00 64 1012.5
20260905004158 82 10 3.5 5.2 0.00 0.00 0.00 64 1012.5
20260905004036 82 11 4.3 5.2 0.00 0.00 0.00 64 1012.5
20260905003934 82 10 4.3 5.2 0.00 0.00 0.00 64 1012.5
20260905003853 82 11 4.3 5.2 0.00 0.00 0.00 64 1012.5
20260905003730 82 10 4.3 5.2 0.00 0.00 0.00 64 1012.5
20260905003629 82 11 4.3 5.2 0.00 0.00 0.00 64 1012.5
20260905003531 82 7 3.5 4.3 0.00 0.00 0.00 64 1012.5
20260905003430 82 8 3.5 4.3 0.00 0.00 0.00 64 1012.5
20260905003328 82 8 2.6 4.3 0.00 0.00 0.00 64 1012.5
20260905003238 82 7 3.5 4.3 0.00 0.00 0.00 64 1012.5
20260905003147 82 7 4.3 4.3 0.00 0.00 0.00 64 1012.5
20260905003027 82 7 3.5 4.3 0.00 0.00 0.00 64 1012.5
20260905002925 82 7 2.6 4.3 0.00 0.00 0.00 65 1012.5
20260905002826 82 7 2.6 4.3 0.00 0.00 0.00 65 1012.5
20260905002745 82 6 2.6 4.3 0.00 0.00 0.00 65 1012.4
20260905002643 82 6 2.6 4.3 0.00 0.00 0.00 65 1012.4
20260905002543 82 8 2.6 4.3 0.00 0.00 0.00 65 1012.4
20260905002442 82 7 2.6 4.3 0.00 0.00 0.00 65 1012.4
20260905002339 82 7 2.6 4.3 0.00 0.00 0.00 65 1012.4
20260905002239 82 7 2.6 3.5 0.00 0.00 0.00 65 1012.4
20260905002135 82 7 2.6 3.5 0.00 0.00 0.00 65 1012.4
20260905002053 82 7 2.6 3.5 0.00 0.00 0.00 65 1012.4
20260905001935 82 7 2.6 3.5 0.00 0.00 0.00 65 1012.4
20260905001833 82 6 2.6 3.5 0.00 0.00 0.00 65 1012.4
20260905001743 82 7 1.7 3.5 0.00 0.00 0.00 65 1012.4
20260905001652 82 8 2.6 3.5 0.00 0.00 0.00 65 1012.4
20260905001529 82 3 2.6 3.5 0.00 0.00 0.00 64 1012.4
20260905001428 83 7 2.6 3.5 0.00 0.00 0.00 64 1012.4
20260905001326 83 7 2.6 4.3 0.00 0.00 0.00 64 1012.4
20260905001230 83 6 2.6 4.3 0.00 0.00 0.00 64 1012.4
20260905001129 83 7 2.6 4.3 0.00 0.00 0.00 64 1012.4
20260905001028 83 7 2.6 4.3 0.00 0.00 0.00 64 1012.4
20260905000925 83 7 2.6 4.3 0.00 0.00 0.00 64 1012.4
20260905000844 83 7 2.6 4.3 0.00 0.00 0.00 64 1012.4
20260905000802 83 7 2.6 4.3 0.00 0.00 0.00 64 1012.4
20260905000700 83 6 2.6 4.3 0.00 0.00 0.00 64 1012.4
20260905000557 83 7 2.6 5.2 0.00 0.00 0.00 64 1012.4
20260905000454 83 6 3.5 5.2 0.00 0.00 0.00 64 1012.4
20260905000356 83 7 2.6 5.2 0.00 0.00 0.00 64 1012.4
20260905000234 83 7 2.6 5.2 0.00 0.00 0.00 64 1012.4
20260905000205 83 7 3.5 5.2 0.00 0.00 0.00 64 1012.4
20260905000041 83 7 4.3 5.2 0.00 0.00 0.00 65 1012.4
20260904235939 83 8 4.3 5.2 0.00 0.00 0.00 65 1012.4
20260904235837 83 7 3.5 5.2 0.00 0.00 0.00 65 1012.4
20260904235737 83 4 3.5 5.2 0.00 0.00 0.00 64 1012.4
20260904235640 83 8 2.6 4.3 0.00 0.00 0.00 64 1012.4
20260904235538 83 8 2.6 4.3 0.00 0.00 0.00 64 1012.4
20260904235456 83 8 2.6 4.3 0.00 0.00 0.00 64 1012.4
20260904235354 83 10 2.6 4.3 0.00 0.00 0.00 64 1012.4
20260904235251 83 11 1.7 4.3 0.00 0.00 0.00 64 1012.4
20260904235128 83 8 2.6 4.3 0.00 0.00 0.00 65 1012.4
20260904235048 83 10 1.7 4.3 0.00 0.00 0.00 65 1012.4
20260904234926 83 7 1.7 4.3 0.00 0.00 0.00 65 1012.4
20260904234825 83 10 2.6 4.3 0.00 0.00 0.00 65 1012.4
20260904234727 83 10 2.6 5.2 0.00 0.00 0.00 64 1012.4
20260904234656 83 7 1.7 5.2 0.00 0.00 0.00 64 1012.4
20260904234558 83 13 2.6 5.2 0.00 0.00 0.00 64 1012.4
20260904234438 83 11 2.6 5.2 0.00 0.00 0.00 64 1012.4
20260904234336 83 14 1.7 7.0 0.00 0.00 0.00 63 1012.4
20260904234235 83 10 2.6 7.0 0.00 0.00 0.00 64 1012.3
20260904234134 83 14 2.6 7.0 0.00 0.00 0.00 64 1012.3
20260904234036 83 16 2.6 7.0 0.00 0.00 0.00 64 1012.3
20260904233954 83 14 3.5 7.0 0.00 0.00 0.00 64 1012.3
20260904233831 83 10 3.5 7.0 0.00 0.00 0.00 64 1012.3
20260904233729 83 11 2.6 7.0 0.00 0.00 0.00 64 1012.3
20260904233629 83 10 2.6 7.0 0.00 0.00 0.00 64 1012.3
20260904233527 83 13 4.3 7.0 0.00 0.00 0.00 64 1012.3
20260904233447 84 14 2.6 7.0 0.00 0.00 0.00 64 1012.3
20260904233345 84 17 3.5 7.0 0.00 0.00 0.00 64 1012.3
20260904233239 84 16 3.5 7.0 0.00 0.00 0.00 64 1012.3
20260904233148 84 18 3.5 7.0 0.00 0.00 0.00 64 1012.3
20260904233025 84 21 4.3 7.0 0.00 0.00 0.00 64 1012.3
20260904232942 84 21 4.3 7.0 0.00 0.00 0.00 64 1012.3
20260904232841 84 23 4.3 7.0 0.00 0.00 0.00 63 1012.3
20260904232739 84 23 6.1 7.0 0.00 0.00 0.00 63 1012.2
20260904232637 84 31 6.1 7.0 0.00 0.00 0.00 63 1012.2
20260904232536 84 4 4.3 7.0 0.00 0.00 0.00 63 1012.2
20260904232459 84 360 3.5 7.0 0.00 0.00 0.00 63 1012.2
20260904232356 84 14 4.3 7.0 0.00 0.00 0.00 63 1012.2
20260904232233 84 1 5.2 7.0 0.00 0.00 0.00 63 1012.2
20260904232132 84 325 5.2 7.0 0.00 0.00 0.00 63 1012.2
20260904232030 84 353 5.2 7.0 0.00 0.00 0.00 62 1012.2
20260904231929 84 325 5.2 7.0 0.00 0.00 0.00 62 1012.2
20260904231828 85 350 3.5 7.0 0.00 0.00 0.00 62 1012.2
20260904231743 85 346 4.3 7.0 0.00 0.00 0.00 62 1012.2
20260904231651 85 360 4.3 7.0 0.00 0.00 0.00 62 1012.2
20260904231530 85 360 5.2 7.0 0.00 0.00 0.00 62 1012.2
20260904231449 85 1 2.6 7.0 0.00 0.00 0.00 62 1012.2
20260904231326 85 3 5.2 8.7 0.00 0.00 0.00 62 1012.2
20260904231243 85 4 4.3 8.7 0.00 0.00 0.00 63 1012.3
20260904231140 85 360 3.5 8.7 0.00 0.00 0.00 63 1012.3
20260904231039 85 3 2.6 9.6 0.00 0.00 0.00 63 1012.3
20260904230941 85 4 2.6 9.6 0.00 0.00 0.00 63 1012.3
20260904230859 85 3 2.6 9.6 0.00 0.00 0.00 62 1012.3
20260904230756 85 4 3.5 9.6 0.00 0.00 0.00 62 1012.3
20260904230635 85 6 4.3 9.6 0.00 0.00 0.00 62 1012.3
20260904230534 85 35 6.1 9.6 0.00 0.00 0.00 62 1012.3
20260904230433 85 360 5.2 9.6 0.00 0.00 0.00 62 1012.3
20260904230330 85 360 6.1 9.6 0.00 0.00 0.00 62 1012.3
20260904230300 85 360 6.1 9.6 0.00 0.00 0.00 62 1012.3
20260904230149 85 326 5.2 9.6 0.00 0.00 0.00 62 1012.3
20260904230029 85 346 1.7 5.2 0.00 0.00 0.00 62 1012.3
20260904225927 85 346 3.5 5.2 0.00 0.00 0.00 62 1012.3
20260904225824 85 342 3.5 5.2 0.00 0.00 0.00 62 1012.3
20260904225743 85 343 3.5 5.2 0.00 0.00 0.00 62 1011.8
20260904225642 85 340 1.7 4.3 0.00 0.00 0.00 61 1011.8
20260904225540 85 342 1.7 4.3 0.00 0.00 0.00 61 1011.8
20260904225437 85 342 2.6 4.3 0.00 0.00 0.00 61 1011.8
20260904225339 85 336 1.7 5.2 0.00 0.00 0.00 61 1011.8
20260904225238 85 336 1.7 6.1 0.00 0.00 0.00 61 1011.8
20260904225136 85 336 2.6 6.1 0.00 0.00 0.00 61 1011.8
20260904225032 85 336 2.6 6.1 0.00 0.00 0.00 61 1011.8
20260904224930 85 335 2.6 6.1 0.00 0.00 0.00 60 1011.8
20260904224827 85 336 2.6 6.1 0.00 0.00 0.00 60 1011.8
20260904224736 85 332 1.7 6.1 0.00 0.00 0.00 60 1011.8
20260904224645 85 333 0.9 6.1 0.00 0.00 0.00 62 1011.8
20260904224528 86 330 1.7 6.1 0.00 0.00 0.00 62 1011.8
20260904224425 86 322 4.3 6.1 0.00 0.00 0.00 61 1011.8
20260904224324 86 37 1.7 4.3 0.00 0.00 0.00 61 1011.8
20260904224242 86 37 0.9 4.3 0.00 0.00 0.00 62 1012.1
20260904224140 86 35 0.0 4.3 0.00 0.00 0.00 62 1012.1
20260904224040 86 35 0.0 4.3 0.00 0.00 0.00 62 1012.1
20260904223940 86 35 0.9 4.3 0.00 0.00 0.00 62 1012.1
20260904223858 86 38 0.9 4.3 0.00 0.00 0.00 62 1012.1
20260904223740 86 37 0.9 4.3 0.00 0.00 0.00 62 1012.1
20260904223638 86 37 2.6 4.3 0.00 0.00 0.00 62 1012.1
20260904223536 86 35 2.6 4.3 0.00 0.00 0.00 62 1012.1
20260904223433 85 35 1.7 4.3 0.00 0.00 0.00 61 1012.1
20260904223331 85 37 1.7 4.3 0.00 0.00 0.00 61 1012.1
20260904223250 85 38 1.7 4.3 0.00 0.00 0.00 62 1012.1
20260904223159 85 37 1.7 4.3 0.00 0.00 0.00 62 1012.1
20260904223039 85 35 1.7 4.3 0.00 0.00 0.00 63 1012.1
20260904222942 85 37 1.7 4.3 0.00 0.00 0.00 63 1012.1
20260904222902 85 37 1.7 4.3 0.00 0.00 0.00 62 1012.1
20260904222740 85 37 1.7 4.3 0.00 0.00 0.00 62 1012.0
20260904222638 85 37 1.7 4.3 0.00 0.00 0.00 62 1012.0
20260904222557 85 37 2.6 4.3 0.00 0.00 0.00 62 1012.0
20260904222434 85 37 2.6 4.3 0.00 0.00 0.00 62 1012.0
20260904222336 85 38 1.7 2.6 0.00 0.00 0.00 62 1012.0
20260904222238 85 35 1.7 2.6 0.00 0.00 0.00 62 1012.0
20260904222138 85 37 1.7 2.6 0.00 0.00 0.00 62 1012.0
20260904222035 85 37 1.7 2.6 0.00 0.00 0.00 62 1012.0
20260904221933 85 35 1.7 2.6 0.00 0.00 0.00 61 1012.0
20260904221832 85 32 0.9 2.6 0.00 0.00 0.00 61 1012.0
20260904221742 85 37 1.7 2.6 0.00 0.00 0.00 61 1012.0
20260904221651 85 37 0.9 2.6 0.00 0.00 0.00 61 1012.0
20260904221532 85 37 0.0 1.7 0.00 0.00 0.00 61 1012.0
20260904221451 85 34 0.0 0.9 0.00 0.00 0.00 62 1012.0
20260904221327 85 38 0.0 0.0 0.00 0.00 0.00 62 1012.0
20260904221245 85 38 0.0 0.0 0.00 0.00 0.00 62 1012.0
20260904221143 85 35 0.0 0.0 0.00 0.00 0.00 61 1012.0
20260904221042 84 34 0.0 0.0 0.00 0.00 0.00 63 1012.0
20260904220921 84 37 0.0 1.7 0.00 0.00 0.00 63 1012.0
20260904220843 84 37 0.0 1.7 0.00 0.00 0.00 65 1012.0
20260904220724 84 34 0.0 1.7 0.00 0.00 0.00 65 1012.0
20260904220626 84 37 0.0 1.7 0.00 0.00 0.00 65 1012.0
20260904220544 84 37 0.0 1.7 0.00 0.00 0.00 64 1012.0
20260904220503 84 37 0.0 2.6 0.00 0.00 0.00 64 1012.0
20260904220340 84 37 0.0 2.6 0.00 0.00 0.00 64 1012.0
20260904220238 84 37 0.0 2.6 0.00 0.00 0.00 63 1012.0
20260904220209 84 34 0.9 2.6 0.00 0.00 0.00 63 1012.0
20260904220045 84 37 0.9 2.6 0.00 0.00 0.00 63 1012.0
20260904215941 84 37 0.9 2.6 0.00 0.00 0.00 63 1012.0
20260904215824 84 38 1.7 2.6 0.00 0.00 0.00 63 1012.0
20260904215743 84 37 1.7 2.6 0.00 0.00 0.00 63 1011.8
20260904215641 84 35 1.7 2.6 0.00 0.00 0.00 63 1011.8
20260904215541 84 37 1.7 2.6 0.00 0.00 0.00 63 1011.8
20260904215439 84 35 1.7 2.6 0.00 0.00 0.00 63 1011.8
20260904215338 84 37 1.7 2.6 0.00 0.00 0.00 63 1011.8
20260904215237 84 35 1.7 2.6 0.00 0.00 0.00 63 1011.8
20260904215140 84 37 1.7 2.6 0.00 0.00 0.00 63 1011.8
20260904215039 84 35 0.9 2.6 0.00 0.00 0.00 64 1011.8
20260904214937 84 38 0.9 2.6 0.00 0.00 0.00 63 1011.8
20260904214835 84 38 0.9 2.6 0.00 0.00 0.00 63 1011.8
20260904214734 84 38 1.7 2.6 0.00 0.00 0.00 64 1011.8
20260904214703 84 37 1.7 4.3 0.00 0.00 0.00 64 1011.8
20260904214601 84 38 1.7 4.3 0.00 0.00 0.00 64 1011.8
20260904214424 84 37 1.7 4.3 0.00 0.00 0.00 64 1011.8
20260904214325 84 37 1.7 5.2 0.00 0.00 0.00 64 1011.8
20260904214244 84 38 1.7 5.2 0.00 0.00 0.00 63 1011.8
20260904214141 84 37 1.7 5.2 0.00 0.00 0.00 63 1011.8
20260904214040 84 37 1.7 5.2 0.00 0.00 0.00 63 1011.8
20260904213938 84 38 1.7 5.2 0.00 0.00 0.00 63 1011.8
20260904213838 84 37 2.6 5.2 0.00 0.00 0.00 63 1011.8
20260904213739 84 32 2.6 5.2 0.00 0.00 0.00 63 1011.8
20260904213637 84 37 3.5 5.2 0.00 0.00 0.00 63 1011.8
20260904213536 84 38 3.5 5.2 0.00 0.00 0.00 62 1011.8
20260904213435 84 37 3.5 5.2 0.00 0.00 0.00 63 1011.8
20260904213332 84 35 3.5 5.2 0.00 0.00 0.00 63 1011.8
20260904213241 84 34 4.3 5.2 0.00 0.00 0.00 63 1011.8
20260904213152 84 35 4.3 5.2 0.00 0.00 0.00 63 1011.8
20260904213033 84 37 3.5 5.2 0.00 0.00 0.00 63 1011.8
20260904212930 84 35 2.6 5.2 0.00 0.00 0.00 63 1011.8
20260904212830 84 37 4.3 5.2 0.00 0.00 0.00 63 1011.8
20260904212749 84 35 3.5 4.3 0.00 0.00 0.00 63 1011.9
20260904212646 84 34 3.5 4.3 0.00 0.00 0.00 62 1011.9
20260904212604 84 35 3.5 4.3 0.00 0.00 0.00 63 1011.9
20260904212441 84 31 2.6 3.5 0.00 0.00 0.00 63 1011.9
20260904212338 84 35 2.6 2.6 0.00 0.00 0.00 63 1011.9
20260904212241 84 34 2.6 2.6 0.00 0.00 0.00 63 1011.9
20260904212139 84 37 1.7 2.6 0.00 0.00 0.00 63 1011.9
20260904212058 84 32 1.7 2.6 0.00 0.00 0.00 63 1011.9
20260904211936 84 34 1.7 2.6 0.00 0.00 0.00 62 1011.9
20260904211833 84 35 0.9 2.6 0.00 0.00 0.00 62 1011.9
20260904211744 84 34 1.7 2.6 0.00 0.00 0.00 62 1011.9
20260904211652 84 31 1.7 2.6 0.00 0.00 0.00 62 1011.9
20260904211530 84 34 2.6 2.6 0.00 0.00 0.00 62 1011.9
20260904211432 84 34 2.6 2.6 0.00 0.00 0.00 61 1011.9
20260904211330 84 30 2.6 2.6 0.00 0.00 0.00 61 1011.9
20260904211248 84 35 1.7 2.6 0.00 0.00 0.00 61 1011.8
20260904211145 84 34 1.7 2.6 0.00 0.00 0.00 60 1011.8
20260904211104 85 35 1.7 2.6 0.00 0.00 0.00 60 1011.8
20260904211002 85 35 1.7 2.6 0.00 0.00 0.00 60 1011.8
20260904210840 85 34 1.7 2.6 0.00 0.00 0.00 60 1011.8
20260904210737 85 34 1.7 2.6 0.00 0.00 0.00 61 1011.8
20260904210639 85 34 1.7 2.6 0.00 0.00 0.00 59 1011.8
20260904210538 85 31 1.7 2.6 0.00 0.00 0.00 60 1011.8
20260904210437 85 32 0.9 4.3 0.00 0.00 0.00 59 1011.8
20260904210334 85 34 0.9 4.3 0.00 0.00 0.00 60 1011.8
20260904210233 85 35 1.7 5.2 0.00 0.00 0.00 60 1011.8
20260904210203 85 35 1.7 5.2 0.00 0.00 0.00 60 1011.8
20260904210040 85 35 1.7 5.2 0.00 0.00 0.00 61 1011.8
20260904205942 85 34 1.7 5.2 0.00 0.00 0.00 61 1011.8
20260904205840 85 35 1.7 5.2 0.00 0.00 0.00 61 1011.8
20260904205758 85 32 2.6 5.2 0.00 0.00 0.00 61 1011.9
20260904205635 85 34 2.6 5.2 0.00 0.00 0.00 60 1011.9
20260904205534 85 32 2.6 5.2 0.00 0.00 0.00 61 1011.9
20260904205432 85 34 3.5 5.2 0.00 0.00 0.00 63 1011.9
20260904205331 85 32 3.5 5.2 0.00 0.00 0.00 62 1011.9
20260904205234 85 31 3.5 5.2 0.00 0.00 0.00 62 1011.9
20260904205135 85 31 4.3 5.2 0.00 0.00 0.00 61 1011.9
20260904205053 85 38 4.3 5.2 0.00 0.00 0.00 61 1011.9
20260904204930 85 42 3.5 5.2 0.00 0.00 0.00 61 1011.9
20260904204828 85 47 2.6 4.3 0.00 0.00 0.00 61 1011.9
20260904204746 85 45 1.7 4.3 0.00 0.00 0.00 61 1011.9
20260904204654 85 47 2.6 4.3 0.00 0.00 0.00 61 1011.9
20260904204533 85 45 1.7 4.3 0.00 0.00 0.00 60 1011.9
20260904204451 85 45 2.6 4.3 0.00 0.00 0.00 61 1011.9
20260904204332 85 45 2.6 6.1 0.00 0.00 0.00 60 1011.9
20260904204231 85 45 3.5 6.1 0.00 0.00 0.00 59 1012.2
20260904204148 85 47 3.5 6.1 0.00 0.00 0.00 60 1012.2
20260904204024 85 44 2.6 6.1 0.00 0.00 0.00 60 1012.2
20260904203944 85 44 2.6 6.1 0.00 0.00 0.00 60 1012.2
20260904203841 85 44 1.7 6.1 0.00 0.00 0.00 60 1012.2
20260904203740 85 42 2.6 6.1 0.00 0.00 0.00 60 1012.2
20260904203638 85 47 3.5 6.1 0.00 0.00 0.00 59 1012.2
20260904203541 85 45 4.3 7.8 0.00 0.00 0.00 60 1012.2
20260904203439 85 45 4.3 7.8 0.00 0.00 0.00 59 1012.2
20260904203358 85 45 3.5 7.8 0.00 0.00 0.00 58 1012.2
20260904203235 85 44 3.5 7.8 0.00 0.00 0.00 58 1012.2
20260904203206 85 44 4.3 7.8 0.00 0.00 0.00 58 1012.2
20260904203041 86 47 4.3 7.8 0.00 0.00 0.00 57 1012.2
20260904203001 86 45 4.3 7.8 0.00 0.00 0.00 58 1012.2
20260904202839 86 44 4.3 7.8 0.00 0.00 0.00 58 1012.2
20260904202742 86 45 5.2 7.8 0.00 0.00 0.00 57 1013.4
20260904202640 86 48 6.1 7.8 0.00 0.00 0.00 58 1013.4
20260904202538 86 48 6.1 7.0 0.00 0.00 0.00 58 1013.4
20260904202436 86 48 5.2 7.0 0.00 0.00 0.00 57 1013.4
20260904202335 86 49 5.2 7.0 0.00 0.00 0.00 58 1013.4
20260904202234 86 48 6.1 7.0 0.00 0.00 0.00 58 1013.4
20260904202151 86 51 6.1 7.0 0.00 0.00 0.00 58 1013.4
20260904202049 86 49 5.2 7.0 0.00 0.00 0.00 56 1013.4
20260904201930 86 49 6.1 7.0 0.00 0.00 0.00 57 1013.4
20260904201849 86 48 6.1 7.0 0.00 0.00 0.00 58 1013.4
20260904201738 87 47 5.2 7.0 0.00 0.00 0.00 57 1013.4
20260904201648 87 49 5.2 7.0 0.00 0.00 0.00 57 1013.4
20260904201545 87 44 4.3 7.0 0.00 0.00 0.00 57 1013.4
20260904201503 87 31 3.5 7.0 0.00 0.00 0.00 57 1013.4
20260904201342 87 44 4.3 7.8 0.00 0.00 0.00 59 1013.4
20260904201240 87 47 5.2 8.7 0.00 0.00 0.00 59 1013.6
20260904201124 87 49 4.3 8.7 0.00 0.00 0.00 59 1013.6
20260904201043 87 48 4.3 8.7 0.00 0.00 0.00 58 1013.6
20260904200943 87 49 5.2 8.7 0.00 0.00 0.00 58 1013.6
20260904200841 87 51 4.3 8.7 0.00 0.00 0.00 57 1013.6
20260904200739 87 48 5.2 8.7 0.00 0.00 0.00 57 1013.6
20260904200638 88 52 5.2 9.6 0.00 0.00 0.00 58 1013.6
20260904200535 88 61 5.2 10.4 0.00 0.00 0.00 57 1013.6
20260904200439 88 71 6.1 10.4 0.00 0.00 0.00 57 1013.6
20260904200337 88 54 3.5 10.4 0.00 0.00 0.00 56 1013.6
20260904200236 88 51 3.5 10.4 0.00 0.00 0.00 56 1013.6
20260904200146 88 54 7.0 12.2 0.00 0.00 0.00 56 1013.6
20260904200024 88 68 7.0 14.8 0.00 0.00 0.00 57 1013.6
20260904195942 88 35 6.1 14.8 0.00 0.00 0.00 57 1013.6
20260904195821 88 51 7.8 15.6 0.00 0.00 0.00 57 1013.6
20260904195726 88 48 7.8 15.6 0.00 0.00 0.00 57 1013.7
20260904195624 88 58 7.0 15.6 0.00 0.00 0.00 57 1013.7
20260904195542 89 65 7.0 15.6 0.00 0.00 0.00 58 1013.7
20260904195442 89 62 7.8 15.6 0.00 0.00 0.00 57 1013.7
20260904195359 89 61 7.8 15.6 0.00 0.00 0.00 56 1013.7
20260904195236 89 90 8.7 15.6 0.00 0.00 0.00 56 1013.7
20260904195135 89 99 6.1 15.6 0.00 0.00 0.00 56 1013.7
20260904195054 89 45 9.6 15.6 0.00 0.00 0.00 56 1013.7
20260904194935 89 41 8.7 15.6 0.00 0.00 0.00 57 1013.7
20260904194833 89 75 5.2 7.0 0.00 0.00 0.00 56 1013.7
20260904194741 89 62 4.3 7.0 0.00 0.00 0.00 57 1013.7
20260904194649 89 59 5.2 7.0 0.00 0.00 0.00 56 1013.7
20260904194528 89 54 1.7 7.0 0.00 0.00 0.00 55 1013.7
20260904194428 89 51 4.3 7.0 0.00 0.00 0.00 57 1013.7
20260904194327 89 58 5.2 7.0 0.00 0.00 0.00 56 1013.7
20260904194246 89 61 1.7 6.1 0.00 0.00 0.00 56 1013.8
20260904194127 89 69 2.6 6.1 0.00 0.00 0.00 57 1013.8
20260904194025 89 55 2.6 5.2 0.00 0.00 0.00 58 1013.8
20260904193944 89 55 3.5 5.2 0.00 0.00 0.00 58 1013.8
20260904193904 89 55 3.5 5.2 0.00 0.00 0.00 57 1013.8
20260904193741 89 55 2.6 4.3 0.00 0.00 0.00 57 1013.8
20260904193700 89 49 0.0 1.7 0.00 0.00 0.00 56 1013.8
20260904193539 89 54 0.9 1.7 0.00 0.00 0.00 55 1013.8
20260904193457 89 51 0.0 1.7 0.00 0.00 0.00 55 1013.8
20260904193339 89 52 0.0 2.6 0.00 0.00 0.00 55 1013.8
20260904193208 89 52 0.0 2.6 0.00 0.00 0.00 56 1013.8
20260904193105 89 52 0.0 2.6 0.00 0.00 0.00 57 1013.8
20260904193002 89 54 0.0 2.6 0.00 0.00 0.00 57 1013.8
20260904192840 90 54 0.0 2.6 0.00 0.00 0.00 54 1013.8
20260904192737 90 52 0.0 2.6 0.00 0.00 0.00 54 1013.8
20260904192637 90 52 0.9 4.3 0.00 0.00 0.00 55 1013.8
20260904192535 90 54 1.7 4.3 0.00 0.00 0.00 57 1013.8
20260904192438 90 52 2.6 4.3 0.00 0.00 0.00 55 1013.8
20260904192336 90 54 0.9 4.3 0.00 0.00 0.00 56 1013.8
20260904192234 90 52 0.0 4.3 0.00 0.00 0.00 55 1013.8
20260904192132 90 52 1.7 4.3 0.00 0.00 0.00 55 1013.8
20260904192028 90 51 1.7 4.3 0.00 0.00 0.00 55 1013.8
20260904191927 90 51 0.9 4.3 0.00 0.00 0.00 56 1013.8
20260904191828 90 54 2.6 5.2 0.00 0.00 0.00 55 1013.8
20260904191739 90 49 0.9 5.2 0.00 0.00 0.00 53 1013.8
20260904191646 90 51 0.9 5.2 0.00 0.00 0.00 53 1013.8
20260904191544 90 51 3.5 5.2 0.00 0.00 0.00 55 1013.8
20260904191441 90 51 2.6 5.2 0.00 0.00 0.00 56 1013.8
20260904191359 90 48 0.9 5.2 0.00 0.00 0.00 56 1013.8
20260904191238 90 48 1.7 5.2 0.00 0.00 0.00 55 1014.1
20260904191137 90 48 1.7 5.2 0.00 0.00 0.00 56 1014.1
20260904191040 90 48 3.5 5.2 0.00 0.00 0.00 57 1014.1
20260904190937 90 49 3.5 5.2 0.00 0.00 0.00 56 1014.1
20260904190836 90 48 2.6 5.2 0.00 0.00 0.00 55 1014.1
20260904190734 90 48 2.6 5.2 0.00 0.00 0.00 54 1014.1
20260904190633 90 48 1.7 5.2 0.00 0.00 0.00 55 1014.1
20260904190531 90 48 2.6 5.2 0.00 0.00 0.00 55 1014.1
20260904190430 90 16 1.7 4.3 0.00 0.00 0.00 54 1014.1
20260904190353 90 14 1.7 4.3 0.00 0.00 0.00 54 1014.1
20260904190301 90 16 0.9 4.3 0.00 0.00 0.00 54 1014.1
20260904190148 90 16 1.7 4.3 0.00 0.00 0.00 54 1014.1
20260904190024 90 18 2.6 4.3 0.00 0.00 0.00 53 1014.1
20260904185943 90 17 1.7 4.3 0.00 0.00 0.00 53 1014.1
20260904185841 90 23 0.0 2.6 0.00 0.00 0.00 54 1014.1
20260904185740 90 23 0.0 5.2 0.00 0.00 0.00 54 1014.3
20260904185658 90 21 0.0 5.2 0.00 0.00 0.00 54 1014.3
20260904185535 90 24 0.0 5.2 0.00 0.00 0.00 53 1014.3
20260904185438 90 20 1.7 5.2 0.00 0.00 0.00 53 1014.3
20260904185337 90 23 0.9 5.2 0.00 0.00 0.00 53 1014.3
20260904185235 90 23 0.9 5.2 0.00 0.00 0.00 54 1014.3
20260904185133 90 21 0.9 5.2 0.00 0.00 0.00 54 1014.3
20260904185031 90 24 0.9 5.2 0.00 0.00 0.00 54 1014.3
20260904184930 90 21 3.5 5.2 0.00 0.00 0.00 53 1014.3
20260904184833 90 21 2.6 5.2 0.00 0.00 0.00 53 1014.3
20260904184751 90 25 0.9 5.2 0.00 0.00 0.00 53 1014.3
20260904184720 90 24 2.6 5.2 0.00 0.00 0.00 52 1014.3
20260904184538 90 14 3.5 5.2 0.00 0.00 0.00 54 1014.3
20260904184436 90 13 1.7 5.2 0.00 0.00 0.00 52 1014.3
20260904184335 90 16 3.5 5.2 0.00 0.00 0.00 52 1014.3
20260904184234 90 11 0.9 2.6 0.00 0.00 0.00 53 1014.5
20260904184131 90 11 0.9 2.6 0.00 0.00 0.00 53 1014.5
20260904184036 90 10 0.0 3.5 0.00 0.00 0.00 53 1014.5
20260904183934 90 10 0.0 6.1 0.00 0.00 0.00 53 1014.5
20260904183833 90 11 0.0 6.1 0.00 0.00 0.00 52 1014.5
20260904183731 90 10 0.0 6.1 0.00 0.00 0.00 51 1014.5
20260904183652 90 8 0.0 6.1 0.00 0.00 0.00 51 1014.5
20260904183529 90 11 0.0 6.1 0.00 0.00 0.00 52 1014.5
20260904183428 90 11 0.9 6.1 0.00 0.00 0.00 52 1014.5
20260904183330 90 10 1.7 6.1 0.00 0.00 0.00 53 1014.5
20260904183248 90 10 2.6 6.1 0.00 0.00 0.00 52 1014.5
20260904183157 90 11 3.5 6.1 0.00 0.00 0.00 53 1014.5
20260904183033 90 10 4.3 6.1 0.00 0.00 0.00 52 1014.5
20260904182932 90 4 2.6 6.1 0.00 0.00 0.00 53 1014.5
20260904182829 90 325 0.0 6.1 0.00 0.00 0.00 52 1014.5
20260904182749 90 323 0.0 6.1 0.00 0.00 0.00 53 1014.6
20260904182625 90 325 3.5 6.1 0.00 0.00 0.00 53 1014.6
20260904182544 90 328 2.6 6.1 0.00 0.00 0.00 52 1014.6
20260904182426 90 17 0.9 6.1 0.00 0.00 0.00 53 1014.6
20260904182325 89 18 3.5 6.1 0.00 0.00 0.00 53 1014.6
20260904182244 89 17 5.2 6.1 0.00 0.00 0.00 53 1014.6
20260904182121 89 16 1.7 5.2 0.00 0.00 0.00 53 1014.6
20260904182023 89 44 3.5 5.2 0.00 0.00 0.00 54 1014.6
20260904181926 89 11 3.5 5.2 0.00 0.00 0.00 54 1014.6
20260904181828 89 13 1.7 5.2 0.00 0.00 0.00 53 1014.6
20260904181726 89 360 1.7 3.5 0.00 0.00 0.00 55 1014.6
20260904181659 89 360 0.9 3.5 0.00 0.00 0.00 55 1014.6
20260904181600 89 344 0.0 3.5 0.00 0.00 0.00 54 1014.6
20260904181438 89 344 0.0 4.3 0.00 0.00 0.00 55 1014.6
20260904181336 89 343 0.0 5.2 0.00 0.00 0.00 54 1014.6
20260904181238 89 344 0.9 5.2 0.00 0.00 0.00 54 1014.7
20260904181136 89 340 2.6 5.2 0.00 0.00 0.00 53 1014.7
20260904181039 90 343 1.7 5.2 0.00 0.00 0.00 53 1014.7
20260904180937 90 346 0.9 5.2 0.00 0.00 0.00 52 1014.7
20260904180834 90 344 1.7 5.2 0.00 0.00 0.00 53 1014.7
20260904180732 90 344 0.9 5.2 0.00 0.00 0.00 53 1014.7
20260904180631 90 346 2.6 7.0 0.00 0.00 0.00 52 1014.7
20260904180528 90 349 3.5 7.0 0.00 0.00 0.00 51 1014.7
20260904180428 90 35 0.0 7.0 0.00 0.00 0.00 52 1014.7
20260904180331 90 34 1.7 7.0 0.00 0.00 0.00 53 1014.7
20260904180240 90 35 0.9 7.0 0.00 0.00 0.00 53 1014.7
20260904180151 90 37 1.7 7.0 0.00 0.00 0.00 53 1014.7
20260904180047 90 32 1.7 7.0 0.00 0.00 0.00 53 1014.7
20260904175925 90 37 3.5 7.0 0.00 0.00 0.00 54 1014.7
20260904175824 90 44 3.5 7.0 0.00 0.00 0.00 55 1014.7
20260904175727 90 360 0.9 6.1 0.00 0.00 0.00 53 1014.9
20260904175625 90 352 2.6 6.1 0.00 0.00 0.00 53 1014.9
20260904175528 90 339 3.5 6.1 0.00 0.00 0.00 53 1014.9
20260904175428 90 337 4.3 6.1 0.00 0.00 0.00 53 1014.9
20260904175334 90 347 4.3 6.1 0.00 0.00 0.00 55 1014.9
20260904175230 90 20 0.9 4.3 0.00 0.00 0.00 54 1014.9
20260904175129 90 21 0.0 4.3 0.00 0.00 0.00 54 1014.9
20260904175027 90 21 0.0 4.3 0.00 0.00 0.00 54 1014.9
20260904174930 90 23 0.0 6.1 0.00 0.00 0.00 56 1014.9
20260904174829 90 23 0.0 6.1 0.00 0.00 0.00 55 1014.9
20260904174749 90 21 1.7 6.1 0.00 0.00 0.00 55 1014.9
20260904174657 90 23 2.6 6.1 0.00 0.00 0.00 54 1014.9
20260904174535 90 21 2.6 6.1 0.00 0.00 0.00 54 1014.9
20260904174435 90 20 2.6 6.1 0.00 0.00 0.00 53 1014.9
20260904174333 90 1 1.7 6.1 0.00 0.00 0.00 53 1014.9
20260904174233 90 4 1.7 6.1 0.00 0.00 0.00 53 1015.1
20260904174136 90 325 3.5 6.1 0.00 0.00 0.00 53 1015.1
20260904174034 90 322 1.7 6.1 0.00 0.00 0.00 55 1015.1
20260904173936 90 40 0.0 4.3 0.00 0.00 0.00 57 1015.1
20260904173834 90 37 0.9 4.3 0.00 0.00 0.00 57 1015.1
20260904173732 89 38 0.0 5.2 0.00 0.00 0.00 56 1015.1
20260904173631 89 38 0.0 5.2 0.00 0.00 0.00 56 1015.1
20260904173535 89 38 0.0 5.2 0.00 0.00 0.00 55 1015.1
20260904173432 89 38 0.9 5.2 0.00 0.00 0.00 57 1015.1
20260904173331 89 40 0.9 5.2 0.00 0.00 0.00 57 1015.1
20260904173241 89 40 1.7 5.2 0.00 0.00 0.00 56 1015.1
20260904173151 89 40 3.5 5.2 0.00 0.00 0.00 58 1015.1
20260904173029 89 30 3.5 5.2 0.00 0.00 0.00 56 1015.1
20260904172927 89 32 3.5 5.2 0.00 0.00 0.00 55 1015.1
20260904172831 89 17 2.6 5.2 0.00 0.00 0.00 56 1015.1
20260904172730 89 31 2.6 6.1 0.00 0.00 0.00 57 1015.3
20260904172648 89 28 0.9 6.1 0.00 0.00 0.00 58 1015.3
20260904172526 89 27 1.7 6.1 0.00 0.00 0.00 58 1015.3
20260904172425 88 30 1.7 6.1 0.00 0.00 0.00 58 1015.3
20260904172343 88 30 0.9 6.1 0.00 0.00 0.00 59 1015.3
20260904172241 88 32 1.7 6.1 0.00 0.00 0.00 60 1015.3
20260904172139 88 32 2.6 6.1 0.00 0.00 0.00 59 1015.3
20260904172042 88 34 4.3 6.1 0.00 0.00 0.00 58 1015.3
20260904172000 88 30 4.3 6.1 0.00 0.00 0.00 56 1015.3
20260904171837 88 346 1.7 4.3 0.00 0.00 0.00 56 1015.3
20260904171734 88 343 2.6 4.3 0.00 0.00 0.00 58 1015.3
20260904171703 88 337 1.7 4.3 0.00 0.00 0.00 59 1015.3
20260904171602 88 31 0.0 4.3 0.00 0.00 0.00 59 1015.3
20260904171440 88 30 0.9 4.3 0.00 0.00 0.00 58 1015.3
20260904171339 88 28 2.6 4.3 0.00 0.00 0.00 60 1015.3
20260904171258 88 30 1.7 4.3 0.00 0.00 0.00 59 1015.6
20260904171140 88 27 0.9 4.3 0.00 0.00 0.00 59 1015.6
20260904171038 88 25 0.9 4.3 0.00 0.00 0.00 58 1015.6
20260904170936 88 23 2.6 4.3 0.00 0.00 0.00 59 1015.6
20260904170836 87 24 3.5 4.3 0.00 0.00 0.00 59 1015.6
20260904170733 87 25 1.7 4.3 0.00 0.00 0.00 59 1015.6
20260904170632 87 27 0.0 4.3 0.00 0.00 0.00 59 1015.6
20260904170551 87 27 0.9 4.3 0.00 0.00 0.00 59 1015.6
20260904170449 87 27 2.6 6.1 0.00 0.00 0.00 58 1015.6
20260904170331 87 27 2.6 6.1 0.00 0.00 0.00 58 1015.6
20260904170229 87 24 0.9 6.1 0.00 0.00 0.00 58 1015.6
20260904170200 87 24 0.9 6.1 0.00 0.00 0.00 57 1015.6
20260904170036 87 24 1.7 6.1 0.00 0.00 0.00 57 1015.6
20260904165936 87 25 1.7 6.1 0.00 0.00 0.00 58 1015.6
20260904165835 87 25 1.7 6.1 0.00 0.00 0.00 58 1015.6
20260904165734 87 24 3.5 6.1 0.00 0.00 0.00 58 1015.8
20260904165636 87 24 3.5 6.1 0.00 0.00 0.00 58 1015.8
20260904165533 87 25 3.5 6.1 0.00 0.00 0.00 59 1015.8
20260904165432 87 360 0.9 4.3 0.00 0.00 0.00 57 1015.8
20260904165351 87 360 0.9 4.3 0.00 0.00 0.00 57 1015.8
20260904165226 87 360 1.7 4.3 0.00 0.00 0.00 56 1015.8
20260904165126 87 360 0.0 4.3 0.00 0.00 0.00 57 1015.8
20260904165048 87 360 1.7 4.3 0.00 0.00 0.00 59 1015.8
20260904164926 87 360 3.5 4.3 0.00 0.00 0.00 58 1015.8
20260904164828 87 360 2.6 3.5 0.00 0.00 0.00 58 1015.8
20260904164746 87 360 0.9 3.5 0.00 0.00 0.00 58 1015.8
20260904164716 87 356 0.0 2.6 0.00 0.00 0.00 58 1015.8
20260904164533 87 357 0.9 2.6 0.00 0.00 0.00 59 1015.8
20260904164431 87 357 1.7 4.3 0.00 0.00 0.00 58 1015.8
20260904164329 87 352 1.7 4.3 0.00 0.00 0.00 57 1015.8
20260904164249 87 350 0.9 5.2 0.00 0.00 0.00 57 1015.9
20260904164127 87 350 1.7 5.2 0.00 0.00 0.00 56 1015.9
20260904164026 87 349 1.7 5.2 0.00 0.00 0.00 57 1015.9
20260904163929 87 349 0.9 5.2 0.00 0.00 0.00 57 1015.9
20260904163828 87 350 1.7 5.2 0.00 0.00 0.00 57 1015.9
20260904163749 87 352 1.7 5.2 0.00 0.00 0.00 57 1015.9
20260904163647 87 349 2.6 5.2 0.00 0.00 0.00 57 1015.9
20260904163527 87 349 1.7 5.2 0.00 0.00 0.00 56 1015.9
20260904163426 87 347 3.5 5.2 0.00 0.00 0.00 58 1015.9
20260904163344 87 347 2.6 5.2 0.00 0.00 0.00 59 1015.9
20260904163242 87 344 0.0 4.3 0.00 0.00 0.00 58 1015.9
20260904163213 87 346 0.9 4.3 0.00 0.00 0.00 59 1015.9
20260904163052 87 346 2.6 4.3 0.00 0.00 0.00 58 1015.9
20260904162930 87 346 2.6 4.3 0.00 0.00 0.00 58 1015.9
20260904162828 87 346 1.7 4.3 0.00 0.00 0.00 58 1015.9
20260904162746 87 344 2.6 4.3 0.00 0.00 0.00 59 1015.9
20260904162705 87 346 2.6 4.3 0.00 0.00 0.00 59 1015.9
20260904162542 87 346 0.9 4.3 0.00 0.00 0.00 59 1015.9
20260904162439 87 344 0.0 4.3 0.00 0.00 0.00 59 1015.9
20260904162338 87 344 1.7 4.3 0.00 0.00 0.00 60 1015.9
20260904162241 87 343 1.7 4.3 0.00 0.00 0.00 61 1015.9
20260904162140 87 343 1.7 4.3 0.00 0.00 0.00 60 1015.9
20260904162037 87 343 2.6 4.3 0.00 0.00 0.00 60 1015.9
20260904161937 87 342 2.6 4.3 0.00 0.00 0.00 60 1015.9
20260904161836 87 343 2.6 4.3 0.00 0.00 0.00 62 1015.9
20260904161738 87 287 0.0 1.7 0.00 0.00 0.00 62 1015.9
20260904161647 87 284 0.0 2.6 0.00 0.00 0.00 62 1015.9
20260904161529 87 284 0.0 2.6 0.00 0.00 0.00 62 1015.9
20260904161427 86 287 0.0 2.6 0.00 0.00 0.00 62 1015.9
20260904161346 86 287 0.0 2.6 0.00 0.00 0.00 62 1015.9
20260904161225 86 285 0.9 2.6 0.00 0.00 0.00 61 1016.0
20260904161142 86 287 0.0 2.6 0.00 0.00 0.00 62 1016.0
20260904161042 86 289 0.0 3.5 0.00 0.00 0.00 62 1016.0
20260904160941 86 289 0.0 3.5 0.00 0.00 0.00 62 1016.0
20260904160844 86 289 0.9 4.3 0.00 0.00 0.00 61 1016.0
20260904160742 86 288 1.7 4.3 0.00 0.00 0.00 61 1016.0
20260904160702 86 287 0.9 4.3 0.00 0.00 0.00 62 1016.0
20260904160539 86 287 0.0 4.3 0.00 0.00 0.00 62 1016.0
20260904160436 86 291 0.0 4.3 0.00 0.00 0.00 61 1016.0
20260904160334 86 289 2.6 4.3 0.00 0.00 0.00 62 1016.0
20260904160243 86 288 1.7 4.3 0.00 0.00 0.00 62 1016.0
20260904160152 86 280 0.9 4.3 0.00 0.00 0.00 62 1016.0
20260904160028 86 282 2.6 4.3 0.00 0.00 0.00 61 1016.0
20260904155951 86 275 0.0 2.6 0.00 0.00 0.00 61 1016.0
20260904155828 86 278 1.7 2.6 0.00 0.00 0.00 61 1016.0
20260904155727 86 277 0.9 2.6 0.00 0.00 0.00 63 1015.9
20260904155644 86 272 0.9 4.3 0.00 0.00 0.00 63 1015.9
20260904155542 86 272 0.9 4.3 0.00 0.00 0.00 64 1015.9
20260904155438 86 271 0.0 4.3 0.00 0.00 0.00 63 1015.9
20260904155336 86 268 0.0 4.3 0.00 0.00 0.00 63 1015.9
20260904155234 86 274 0.0 4.3 0.00 0.00 0.00 63 1015.9
20260904155136 85 272 0.0 4.3 0.00 0.00 0.00 64 1015.9
20260904155055 85 274 0.9 4.3 0.00 0.00 0.00 64 1015.9
20260904154931 85 272 1.7 4.3 0.00 0.00 0.00 63 1015.9
20260904154854 85 272 2.6 4.3 0.00 0.00 0.00 63 1015.9
20260904154742 85 272 2.6 4.3 0.00 0.00 0.00 63 1015.9
20260904154650 85 272 2.6 4.3 0.00 0.00 0.00 64 1015.9
20260904154527 85 270 0.0 3.5 0.00 0.00 0.00 63 1015.9
20260904154446 85 268 0.0 4.3 0.00 0.00 0.00 62 1015.9
20260904154343 85 270 0.9 4.3 0.00 0.00 0.00 63 1015.9
20260904154225 85 267 1.7 4.3 0.00 0.00 0.00 63 1015.0
20260904154143 85 270 1.7 4.3 0.00 0.00 0.00 63 1015.0
20260904154041 85 270 0.9 4.3 0.00 0.00 0.00 64 1015.0
20260904153941 85 270 1.7 4.3 0.00 0.00 0.00 64 1015.0
20260904153839 85 270 0.9 4.3 0.00 0.00 0.00 64 1015.0
20260904153738 85 268 0.9 4.3 0.00 0.00 0.00 65 1015.0
20260904153636 85 268 1.7 4.3 0.00 0.00 0.00 65 1015.0
20260904153538 85 268 1.7 4.3 0.00 0.00 0.00 65 1015.0
20260904153436 85 265 0.0 3.5 0.00 0.00 0.00 65 1015.0
20260904153353 85 263 0.0 3.5 0.00 0.00 0.00 65 1015.0
20260904153231 85 267 0.9 3.5 0.00 0.00 0.00 65 1015.0
20260904153202 85 265 0.9 3.5 0.00 0.00 0.00 66 1015.0
20260904153039 85 265 1.7 3.5 0.00 0.00 0.00 66 1015.0
20260904152940 85 264 1.7 3.5 0.00 0.00 0.00 66 1015.0
20260904152843 84 267 1.7 3.5 0.00 0.00 0.00 66 1015.0
20260904152741 84 267 1.7 3.5 0.00 0.00 0.00 66 1015.0
20260904152640 84 267 2.6 3.5 0.00 0.00 0.00 67 1015.0
20260904152537 84 264 1.7 3.5 0.00 0.00 0.00 66 1015.0
20260904152437 84 258 1.7 3.5 0.00 0.00 0.00 67 1015.0
20260904152336 84 260 1.7 3.5 0.00 0.00 0.00 67 1015.0
20260904152257 84 258 0.9 3.5 0.00 0.00 0.00 68 1015.0
20260904152155 84 254 1.7 3.5 0.00 0.00 0.00 68 1015.0
20260904152036 84 260 1.7 3.5 0.00 0.00 0.00 68 1015.0
20260904151935 84 258 0.9 2.6 0.00 0.00 0.00 68 1015.0
20260904151836 84 258 0.0 2.6 0.00 0.00 0.00 68 1015.0
20260904151733 84 260 0.0 2.6 0.00 0.00 0.00 69 1015.0
20260904151703 84 258 0.0 3.5 0.00 0.00 0.00 68 1015.0
20260904151541 84 258 0.9 3.5 0.00 0.00 0.00 69 1015.0
20260904151439 84 256 0.9 3.5 0.00 0.00 0.00 69 1015.0
20260904151342 84 258 0.0 3.5 0.00 0.00 0.00 69 1015.0
20260904151243 84 260 0.0 3.5 0.00 0.00 0.00 69 1014.9
20260904151140 84 258 0.9 3.5 0.00 0.00 0.00 69 1014.9
20260904151037 83 258 1.7 3.5 0.00 0.00 0.00 69 1014.9
20260904150934 83 258 0.0 3.5 0.00 0.00 0.00 70 1014.9
20260904150833 83 258 1.7 3.5 0.00 0.00 0.00 69 1014.9
20260904150732 83 247 0.9 2.6 0.00 0.00 0.00 69 1014.9
20260904150633 83 244 1.7 2.6 0.00 0.00 0.00 69 1014.9
20260904150533 83 246 0.9 3.5 0.00 0.00 0.00 69 1014.9
20260904150431 83 246 0.9 3.5 0.00 0.00 0.00 68 1014.9
20260904150329 83 247 0.9 3.5 0.00 0.00 0.00 68 1014.9
20260904150228 83 247 0.0 3.5 0.00 0.00 0.00 69 1014.9
20260904150200 83 247 0.0 3.5 0.00 0.00 0.00 69 1014.9
20260904150037 83 247 0.9 3.5 0.00 0.00 0.00 68 1014.9
20260904145938 83 246 1.7 3.5 0.00 0.00 0.00 68 1014.9
20260904145834 83 246 0.9 3.5 0.00 0.00 0.00 68 1014.9
20260904145753 82 247 1.7 3.5 0.00 0.00 0.00 68 1014.9
20260904145631 82 246 1.7 3.5 0.00 0.00 0.00 68 1014.9
20260904145527 82 247 0.0 2.6 0.00 0.00 0.00 69 1014.9
20260904145425 82 246 1.7 2.6 0.00 0.00 0.00 68 1014.9
20260904145343 82 247 1.7 2.6 0.00 0.00 0.00 68 1014.9
20260904145241 82 247 1.7 2.6 0.00 0.00 0.00 69 1014.9
20260904145204 82 247 0.9 4.3 0.00 0.00 0.00 69 1014.9
20260904145105 82 247 0.0 4.3 0.00 0.00 0.00 70 1014.9
20260904145001 82 248 0.9 4.3 0.00 0.00 0.00 69 1014.9
20260904144840 82 246 1.7 4.3 0.00 0.00 0.00 69 1014.9
20260904144800 82 247 1.7 4.3 0.00 0.00 0.00 69 1014.9
20260904144647 82 246 0.0 4.3 0.00 0.00 0.00 69 1014.9
20260904144544 82 247 1.7 4.3 0.00 0.00 0.00 69 1014.9
20260904144504 82 246 1.7 4.3 0.00 0.00 0.00 69 1014.9
20260904144341 82 246 2.6 4.3 0.00 0.00 0.00 70 1014.9
20260904144239 82 247 2.6 4.3 0.00 0.00 0.00 70 1014.8
20260904144142 82 246 1.7 2.6 0.00 0.00 0.00 70 1014.8
20260904144100 82 246 0.9 2.6 0.00 0.00 0.00 70 1014.8
20260904143940 82 241 0.0 2.6 0.00 0.00 0.00 69 1014.8
20260904143839 81 243 0.9 2.6 0.00 0.00 0.00 69 1014.8
20260904143758 81 243 1.7 2.6 0.00 0.00 0.00 69 1014.8
20260904143635 81 241 0.0 2.6 0.00 0.00 0.00 69 1014.8
20260904143534 81 244 0.9 2.6 0.00 0.00 0.00 69 1014.8
20260904143431 81 243 0.9 2.6 0.00 0.00 0.00 68 1014.8
20260904143334 81 240 1.7 4.3 0.00 0.00 0.00 70 1014.8
20260904143233 81 243 1.7 4.3 0.00 0.00 0.00 70 1014.8
20260904143204 81 243 1.7 5.2 0.00 0.00 0.00 71 1014.8
20260904143041 81 241 0.9 6.1 0.00 0.00 0.00 71 1014.8
20260904142938 81 243 0.0 6.1 0.00 0.00 0.00 70 1014.8
20260904142837 81 243 0.0 6.1 0.00 0.00 0.00 70 1014.8
20260904142735 81 243 0.0 6.1 0.00 0.00 0.00 71 1014.9
20260904142638 81 241 0.9 6.1 0.00 0.00 0.00 71 1014.9
20260904142536 81 241 2.6 6.1 0.00 0.00 0.00 71 1014.9
20260904142435 81 241 3.5 6.1 0.00 0.00 0.00 72 1014.9
20260904142353 81 241 4.3 6.1 0.00 0.00 0.00 72 1014.9
20260904142231 81 241 3.5 6.1 0.00 0.00 0.00 72 1014.9
20260904142128 81 239 3.5 6.1 0.00 0.00 0.00 72 1014.9
20260904142050 81 246 2.6 4.3 0.00 0.00 0.00 72 1014.9
20260904141932 81 247 0.9 5.2 0.00 0.00 0.00 72 1014.9
20260904141831 80 246 1.7 5.2 0.00 0.00 0.00 72 1014.9
20260904141741 80 247 1.7 5.2 0.00 0.00 0.00 72 1014.9
20260904141649 80 243 0.0 5.2 0.00 0.00 0.00 72 1014.9
20260904141548 80 246 0.9 5.2 0.00 0.00 0.00 72 1014.9
20260904141505 80 246 0.9 5.2 0.00 0.00 0.00 72 1014.9
20260904141404 80 247 1.7 5.2 0.00 0.00 0.00 72 1014.9
20260904141242 80 246 0.9 5.2 0.00 0.00 0.00 72 1014.7
20260904141123 80 246 3.5 5.2 0.00 0.00 0.00 72 1014.7
20260904141025 80 247 0.9 4.3 0.00 0.00 0.00 71 1014.7
20260904140925 80 248 2.6 4.3 0.00 0.00 0.00 71 1014.7
20260904140843 80 246 2.6 4.3 0.00 0.00 0.00 71 1014.7
20260904140742 80 247 1.7 4.3 0.00 0.00 0.00 71 1014.7
20260904140640 80 244 1.7 4.3 0.00 0.00 0.00 71 1014.7
20260904140557 80 247 1.7 4.3 0.00 0.00 0.00 71 1014.7
20260904140435 80 247 1.7 4.3 0.00 0.00 0.00 71 1014.7
20260904140357 80 247 1.7 4.3 0.00 0.00 0.00 71 1014.7
20260904140255 80 243 0.9 4.3 0.00 0.00 0.00 71 1014.7
20260904140226 80 243 1.7 5.2 0.00 0.00 0.00 71 1014.7
20260904140040 80 247 3.5 5.2 0.00 0.00 0.00 71 1014.7
20260904135959 80 244 2.6 5.2 0.00 0.00 0.00 71 1014.7
20260904135838 80 243 2.6 5.2 0.00 0.00 0.00 71 1014.7
20260904135735 80 241 2.6 5.2 0.00 0.00 0.00 71 1014.8
20260904135634 80 240 1.7 5.2 0.00 0.00 0.00 72 1014.8
20260904135531 80 239 0.9 5.2 0.00 0.00 0.00 72 1014.8
20260904135434 80 237 1.7 6.1 0.00 0.00 0.00 72 1014.8
20260904135355 80 237 3.5 6.1 0.00 0.00 0.00 72 1014.8
20260904135232 80 241 2.6 6.1 0.00 0.00 0.00 72 1014.8
20260904135130 79 239 1.7 6.1 0.00 0.00 0.00 72 1014.8
20260904135029 79 236 1.7 6.1 0.00 0.00 0.00 72 1014.8
20260904134928 79 239 2.6 6.1 0.00 0.00 0.00 72 1014.8
20260904134828 79 239 1.7 6.1 0.00 0.00 0.00 73 1014.8
20260904134731 79 239 1.7 6.1 0.00 0.00 0.00 73 1014.8
20260904134701 79 239 3.5 6.1 0.00 0.00 0.00 73 1014.8
20260904134539 79 233 3.5 6.1 0.00 0.00 0.00 73 1014.8
20260904134441 79 236 2.6 5.2 0.00 0.00 0.00 73 1014.8
20260904134338 79 229 1.7 5.2 0.00 0.00 0.00 75 1014.8
20260904134237 79 229 3.5 6.1 0.00 0.00 0.00 75 1014.8
20260904134135 79 227 2.6 6.1 0.00 0.00 0.00 75 1014.8
20260904134033 79 230 2.6 6.1 0.00 0.00 0.00 76 1014.8
20260904133956 79 223 3.5 6.1 0.00 0.00 0.00 76 1014.8
20260904133833 79 230 1.7 6.1 0.00 0.00 0.00 76 1014.8
20260904133733 79 229 2.6 6.1 0.00 0.00 0.00 76 1014.8
20260904133631 79 230 3.5 6.1 0.00 0.00 0.00 76 1014.8
20260904133530 79 229 4.3 7.8 0.00 0.00 0.00 76 1014.8
20260904133427 79 224 5.2 7.8 0.00 0.00 0.00 76 1014.8
20260904133325 79 216 4.3 7.8 0.00 0.00 0.00 76 1014.8
20260904133225 79 198 0.9 7.8 0.00 0.00 0.00 77 1014.8
20260904133159 79 198 1.7 7.8 0.00 0.00 0.00 77 1014.8
20260904133035 79 199 2.6 7.8 0.00 0.00 0.00 77 1014.8
20260904132933 79 198 1.7 7.8 0.00 0.00 0.00 77 1014.8
20260904132851 79 206 2.6 7.8 0.00 0.00 0.00 77 1014.8
20260904132729 79 203 5.2 7.8 0.00 0.00 0.00 77 1014.8
20260904132627 79 213 3.5 7.0 0.00 0.00 0.00 77 1014.8
20260904132525 79 212 4.3 7.0 0.00 0.00 0.00 77 1014.8
20260904132428 79 219 4.3 7.0 0.00 0.00 0.00 77 1014.8
20260904132327 79 193 1.7 2.6 0.00 0.00 0.00 77 1014.8
20260904132247 79 195 0.9 2.6 0.00 0.00 0.00 77 1014.8
20260904132144 79 191 0.9 3.5 0.00 0.00 0.00 77 1014.8
20260904132042 79 191 0.9 3.5 0.00 0.00 0.00 77 1014.8
20260904131942 79 189 0.9 3.5 0.00 0.00 0.00 77 1014.8
20260904131841 79 191 1.7 3.5 0.00 0.00 0.00 77 1014.8
20260904131724 79 188 0.9 4.3 0.00 0.00 0.00 77 1014.8
20260904131654 79 188 1.7 4.3 0.00 0.00 0.00 77 1014.8
20260904131531 79 186 0.9 4.3 0.00 0.00 0.00 77 1014.8
20260904131430 79 186 0.9 4.3 0.00 0.00 0.00 77 1014.8
20260904131329 78 184 1.7 4.3 0.00 0.00 0.00 77 1014.8
20260904131248 78 185 1.7 4.3 0.00 0.00 0.00 77 1014.6
20260904131124 78 176 0.9 4.3 0.00 0.00 0.00 77 1014.6
20260904131043 78 179 1.7 4.3 0.00 0.00 0.00 77 1014.6
20260904130926 78 176 2.6 4.3 0.00 0.00 0.00 77 1014.6
20260904130844 78 175 0.9 4.3 0.00 0.00 0.00 77 1014.6
20260904130742 78 167 0.0 4.3 0.00 0.00 0.00 77 1014.6
20260904130641 78 167 1.7 4.3 0.00 0.00 0.00 77 1014.6
20260904130541 78 167 0.9 4.3 0.00 0.00 0.00 77 1014.6
20260904130459 78 165 1.7 4.3 0.00 0.00 0.00 77 1014.6
20260904130336 78 161 1.7 4.3 0.00 0.00 0.00 78 1014.6
20260904130235 78 158 1.7 4.3 0.00 0.00 0.00 78 1014.6
20260904130209 78 158 1.7 4.3 0.00 0.00 0.00 78 1014.6
20260904130025 78 157 0.9 4.3 0.00 0.00 0.00 78 1014.6
20260904125924 78 154 2.6 4.3 0.00 0.00 0.00 78 1014.6
20260904125843 78 154 2.6 4.3 0.00 0.00 0.00 78 1014.6
20260904125742 78 155 1.7 4.3 0.00 0.00 0.00 78 1014.5
20260904125641 78 155 2.6 4.3 0.00 0.00 0.00 78 1014.5
20260904125539 78 157 2.6 4.3 0.00 0.00 0.00 78 1014.5
20260904125442 78 158 2.6 4.3 0.00 0.00 0.00 78 1014.5
20260904125341 78 158 1.7 4.3 0.00 0.00 0.00 78 1014.5
20260904125240 78 157 2.6 5.2 0.00 0.00 0.00 78 1014.5
20260904125140 78 162 2.6 5.2 0.00 0.00 0.00 78 1014.5
20260904125038 78 164 0.9 6.1 0.00 0.00 0.00 78 1014.5
20260904124937 78 161 1.7 6.1 0.00 0.00 0.00 77 1014.5
20260904124836 78 193 1.7 6.1 0.00 0.00 0.00 77 1014.5
20260904124739 78 193 1.7 6.1 0.00 0.00 0.00 77 1014.5
20260904124708 78 196 1.7 6.1 0.00 0.00 0.00 77 1014.5
20260904124526 78 200 0.9 6.1 0.00 0.00 0.00 77 1014.5
20260904124443 78 200 2.6 6.1 0.00 0.00 0.00 77 1014.5
20260904124403 78 200 2.6 6.1 0.00 0.00 0.00 77 1014.5
20260904124240 78 196 2.6 6.1 0.00 0.00 0.00 77 1014.5
20260904124139 78 195 1.7 4.3 0.00 0.00 0.00 77 1014.5
20260904124037 78 193 0.9 4.3 0.00 0.00 0.00 77 1014.5
20260904123939 78 195 0.9 5.2 0.00 0.00 0.00 77 1014.5
20260904123839 78 193 0.9 5.2 0.00 0.00 0.00 77 1014.5
20260904123737 78 193 0.9 5.2 0.00 0.00 0.00 77 1014.5
20260904123636 77 193 1.7 5.2 0.00 0.00 0.00 77 1014.5
20260904123533 77 192 0.9 5.2 0.00 0.00 0.00 77 1014.5
20260904123431 77 193 0.9 5.2 0.00 0.00 0.00 77 1014.5
20260904123331 77 193 0.9 5.2 0.00 0.00 0.00 77 1014.5
20260904123255 77 192 2.6 5.2 0.00 0.00 0.00 77 1014.5
20260904123205 77 193 2.6 5.2 0.00 0.00 0.00 77 1014.5
20260904123041 77 192 0.9 5.2 0.00 0.00 0.00 77 1014.5
20260904122940 77 192 1.7 5.2 0.00 0.00 0.00 77 1014.5
20260904122838 77 188 1.7 5.2 0.00 0.00 0.00 77 1014.5
20260904122737 77 182 2.6 5.2 0.00 0.00 0.00 77 1014.3
20260904122636 77 182 2.6 5.2 0.00 0.00 0.00 77 1014.3
20260904122538 77 179 2.6 5.2 0.00 0.00 0.00 77 1014.3
20260904122436 77 174 1.7 5.2 0.00 0.00 0.00 77 1014.3
20260904122335 77 165 0.9 5.2 0.00 0.00 0.00 77 1014.3
20260904122234 77 164 0.9 5.2 0.00 0.00 0.00 77 1014.3
20260904122151 77 164 0.9 5.2 0.00 0.00 0.00 77 1014.3
20260904122030 77 162 0.9 6.1 0.00 0.00 0.00 77 1014.3
20260904121928 77 158 1.7 6.1 0.00 0.00 0.00 77 1014.3
20260904121830 77 157 2.6 6.1 0.00 0.00 0.00 77 1014.3
20260904121748 77 151 4.3 6.1 0.00 0.00 0.00 77 1014.3
20260904121717 77 151 3.5 6.1 0.00 0.00 0.00 77 1014.3
20260904121537 77 155 2.6 6.1 0.00 0.00 0.00 77 1014.3
20260904121436 77 157 2.6 6.1 0.00 0.00 0.00 77 1014.3
20260904121338 77 154 3.5 6.1 0.00 0.00 0.00 77 1014.3
20260904121236 77 158 4.3 6.1 0.00 0.00 0.00 77 1014.1
20260904121134 77 151 3.5 6.1 0.00 0.00 0.00 77 1014.1
20260904121037 77 145 3.5 6.1 0.00 0.00 0.00 77 1014.1
20260904120935 77 145 4.3 6.1 0.00 0.00 0.00 76 1014.1
20260904120853 77 148 2.6 6.1 0.00 0.00 0.00 77 1014.1
20260904120730 77 141 2.6 6.1 0.00 0.00 0.00 76 1014.1
20260904120649 77 144 3.5 6.1 0.00 0.00 0.00 76 1014.1
20260904120529 77 131 5.2 6.1 0.00 0.00 0.00 76 1014.1
20260904120430 77 155 3.5 6.1 0.00 0.00 0.00 76 1014.1
20260904120333 77 154 3.5 6.1 0.00 0.00 0.00 76 1014.1
20260904120231 77 147 2.6 6.1 0.00 0.00 0.00 76 1014.1
20260904120203 77 154 2.6 6.1 0.00 0.00 0.00 76 1014.1
20260904120040 77 151 3.5 6.1 0.00 0.00 0.00 76 1014.1
20260904115938 77 144 3.5 6.1 0.00 0.00 0.00 76 1014.1
20260904115837 77 161 2.6 6.1 0.00 0.00 0.00 76 1014.1
20260904115735 77 138 3.5 6.1 0.00 0.00 0.00 76 1014.0
20260904115634 77 161 2.6 5.2 0.00 0.00 0.00 76 1014.0
20260904115537 77 168 3.5 6.1 0.00 0.00 0.00 76 1014.0
20260904115435 77 151 3.5 6.1 0.00 0.00 0.00 76 1014.0
20260904115333 77 148 3.5 6.1 0.00 0.00 0.00 76 1014.0
20260904115232 77 150 4.3 6.1 0.00 0.00 0.00 76 1014.0
20260904115151 77 148 3.5 6.1 0.00 0.00 0.00 76 1014.0
20260904115030 77 147 1.7 6.1 0.00 0.00 0.00 76 1014.0
20260904114928 77 141 4.3 7.0 0.00 0.00 0.00 76 1014.0
20260904114831 77 145 1.7 7.0 0.00 0.00 0.00 76 1014.0
20260904114759 77 140 5.2 7.0 0.00 0.00 0.00 76 1014.0
20260904114647 77 143 5.2 7.0 0.00 0.00 0.00 76 1014.0
20260904114524 77 147 3.5 7.0 0.00 0.00 0.00 76 1014.0
20260904114443 77 144 2.6 7.0 0.00 0.00 0.00 76 1014.0
20260904114401 77 137 4.3 7.0 0.00 0.00 0.00 76 1014.0
20260904114238 77 147 4.3 7.0 0.00 0.00 0.00 75 1013.9
20260904114135 77 148 4.3 7.0 0.00 0.00 0.00 75 1013.9
20260904114033 77 150 3.5 7.0 0.00 0.00 0.00 75 1013.9
20260904113934 77 148 2.6 6.1 0.00 0.00 0.00 75 1013.9
20260904113833 77 147 5.2 6.1 0.00 0.00 0.00 75 1013.9
20260904113733 77 148 4.3 6.1 0.00 0.00 0.00 75 1013.9
20260904113652 77 154 4.3 6.1 0.00 0.00 0.00 75 1013.9
20260904113550 77 147 4.3 6.1 0.00 0.00 0.00 75 1013.9
20260904113427 77 154 4.3 7.0 0.00 0.00 0.00 75 1013.9
20260904113325 77 157 4.3 7.0 0.00 0.00 0.00 75 1013.9
20260904113226 77 152 4.3 7.0 0.00 0.00 0.00 75 1013.9
20260904113157 77 152 2.6 7.0 0.00 0.00 0.00 75 1013.9
20260904113035 77 147 1.7 7.0 0.00 0.00 0.00 75 1013.9
20260904112952 77 148 3.5 7.0 0.00 0.00 0.00 75 1013.9
20260904112830 77 151 3.5 7.0 0.00 0.00 0.00 75 1013.9
20260904112729 77 151 5.2 7.0 0.00 0.00 0.00 75 1013.9
20260904112647 77 141 5.2 7.0 0.00 0.00 0.00 75 1013.9
20260904112544 77 143 5.2 7.0 0.00 0.00 0.00 75 1013.9
20260904112424 77 147 4.3 7.0 0.00 0.00 0.00 75 1013.9
20260904112342 77 152 5.2 7.0 0.00 0.00 0.00 75 1013.9
20260904112241 77 141 6.1 7.0 0.00 0.00 0.00 75 1013.9
20260904112140 77 143 5.2 7.0 0.00 0.00 0.00 75 1013.9
20260904112037 77 131 4.3 7.0 0.00 0.00 0.00 75 1013.9
20260904111958 77 141 3.5 7.0 0.00 0.00 0.00 75 1013.9
20260904111835 77 140 3.5 7.0 0.00 0.00 0.00 75 1013.9
20260904111744 77 136 4.3 7.0 0.00 0.00 0.00 75 1013.9
20260904111656 78 145 4.3 7.0 0.00 0.00 0.00 75 1013.9
20260904111534 78 145 3.5 7.0 0.00 0.00 0.00 75 1013.9
20260904111432 78 154 4.3 6.1 0.00 0.00 0.00 75 1013.9
20260904111332 78 145 4.3 6.1 0.00 0.00 0.00 75 1013.9
20260904111231 78 145 3.5 6.1 0.00 0.00 0.00 75 1013.5
20260904111131 78 148 3.5 6.1 0.00 0.00 0.00 75 1013.5
20260904111030 78 143 3.5 6.1 0.00 0.00 0.00 75 1013.5
20260904110933 78 137 4.3 6.1 0.00 0.00 0.00 75 1013.5
20260904110831 78 136 4.3 6.1 0.00 0.00 0.00 75 1013.5
20260904110729 78 136 2.6 6.1 0.00 0.00 0.00 75 1013.5
20260904110648 78 134 5.2 6.1 0.00 0.00 0.00 75 1013.5
20260904110526 78 127 4.3 6.1 0.00 0.00 0.00 75 1013.5
20260904110428 78 137 3.5 6.1 0.00 0.00 0.00 75 1013.5
20260904110348 78 136 4.3 6.1 0.00 0.00 0.00 75 1013.5
20260904110307 78 138 4.3 6.1 0.00 0.00 0.00 75 1013.5
20260904110222 78 141 4.3 6.1 0.00 0.00 0.00 75 1013.5
20260904110057 78 137 5.2 6.1 0.00 0.00 0.00 75 1013.5
20260904105934 78 138 2.6 6.1 0.00 0.00 0.00 75 1013.5
20260904105834 78 138 3.5 6.1 0.00 0.00 0.00 75 1013.5
20260904105732 78 137 5.2 6.1 0.00 0.00 0.00 75 1013.4
20260904105631 78 124 4.3 6.1 0.00 0.00 0.00 75 1013.4
20260904105531 78 145 5.2 6.1 0.00 0.00 0.00 75 1013.4
20260904105449 78 148 5.2 6.1 0.00 0.00 0.00 75 1013.4
20260904105330 78 136 4.3 6.1 0.00 0.00 0.00 75 1013.4
20260904105230 78 137 3.5 6.1 0.00 0.00 0.00 75 1013.4
20260904105128 78 151 2.6 6.1 0.00 0.00 0.00 75 1013.4
20260904105046 78 140 4.3 6.1 0.00 0.00 0.00 75 1013.4
20260904104923 78 140 3.5 6.1 0.00 0.00 0.00 75 1013.4
20260904104825 78 134 4.3 6.1 0.00 0.00 0.00 75 1013.4
20260904104743 78 140 4.3 6.1 0.00 0.00 0.00 75 1013.4
20260904104713 78 143 4.3 6.1 0.00 0.00 0.00 75 1013.4
20260904104555 78 145 4.3 6.1 0.00 0.00 0.00 75 1013.4
20260904104433 78 144 3.5 6.1 0.00 0.00 0.00 75 1013.4
20260904104331 78 144 4.3 6.1 0.00 0.00 0.00 75 1013.4
20260904104229 78 144 3.5 6.1 0.00 0.00 0.00 75 1013.2
20260904104148 78 140 3.5 6.1 0.00 0.00 0.00 75 1013.2
20260904104025 78 140 3.5 6.1 0.00 0.00 0.00 75 1013.2
20260904103943 78 141 5.2 6.1 0.00 0.00 0.00 75 1013.2
20260904103901 78 148 5.2 6.1 0.00 0.00 0.00 75 1013.2
20260904103743 78 145 3.5 6.1 0.00 0.00 0.00 75 1013.2
20260904103641 78 145 3.5 6.1 0.00 0.00 0.00 75 1013.2
20260904103539 78 145 1.7 6.1 0.00 0.00 0.00 75 1013.2
20260904103436 78 126 3.5 6.1 0.00 0.00 0.00 74 1013.2
20260904103354 78 141 5.2 6.1 0.00 0.00 0.00 74 1013.2
20260904103243 78 138 2.6 6.1 0.00 0.00 0.00 74 1013.2
20260904103153 78 140 4.3 6.1 0.00 0.00 0.00 74 1013.2
20260904103029 78 144 3.5 6.1 0.00 0.00 0.00 74 1013.2
20260904102931 78 145 4.3 6.1 0.00 0.00 0.00 74 1013.2
20260904102829 78 143 4.3 6.1 0.00 0.00 0.00 74 1013.2
20260904102728 78 138 3.5 6.1 0.00 0.00 0.00 74 1013.2
20260904102646 78 145 3.5 6.1 0.00 0.00 0.00 74 1013.2
20260904102605 78 143 4.3 6.1 0.00 0.00 0.00 74 1013.2
20260904102442 78 147 5.2 6.1 0.00 0.00 0.00 74 1013.2
20260904102340 78 143 3.5 6.1 0.00 0.00 0.00 74 1013.2
20260904102242 78 133 3.5 6.1 0.00 0.00 0.00 74 1013.2
20260904102141 78 140 2.6 6.1 0.00 0.00 0.00 74 1013.2
20260904102040 78 148 4.3 6.1 0.00 0.00 0.00 74 1013.2
20260904101939 78 140 4.3 6.1 0.00 0.00 0.00 74 1013.2
20260904101836 78 145 4.3 6.1 0.00 0.00 0.00 74 1013.2
20260904101736 78 147 4.3 6.1 0.00 0.00 0.00 74 1013.2
20260904101706 78 143 3.5 6.1 0.00 0.00 0.00 74 1013.2
20260904101603 78 127 1.7 7.0 0.00 0.00 0.00 74 1013.2
20260904101424 78 126 3.5 7.0 0.00 0.00 0.00 74 1013.2
20260904101342 78 144 3.5 7.0 0.00 0.00 0.00 74 1013.2
20260904101242 78 145 4.3 7.0 0.00 0.00 0.00 73 1013.0
20260904101141 78 144 5.2 7.0 0.00 0.00 0.00 73 1013.0
20260904101040 78 141 4.3 7.0 0.00 0.00 0.00 73 1013.0
20260904100938 78 143 4.3 7.0 0.00 0.00 0.00 73 1013.0
20260904100836 78 150 3.5 7.0 0.00 0.00 0.00 73 1013.0
20260904100738 78 144 4.3 7.0 0.00 0.00 0.00 73 1013.0
20260904100637 78 145 3.5 7.0 0.00 0.00 0.00 73 1013.0
20260904100535 78 147 3.5 7.0 0.00 0.00 0.00 73 1013.0
20260904100433 78 151 4.3 7.0 0.00 0.00 0.00 73 1013.0
20260904100332 78 145 4.3 7.0 0.00 0.00 0.00 73 1013.0
20260904100242 78 147 4.3 7.0 0.00 0.00 0.00 73 1013.0
20260904100153 78 152 4.3 7.0 0.00 0.00 0.00 73 1013.0
20260904100035 78 151 3.5 7.0 0.00 0.00 0.00 73 1013.0
20260904095932 78 144 4.3 7.0 0.00 0.00 0.00 73 1013.0
20260904095851 78 150 5.2 7.0 0.00 0.00 0.00 73 1013.0
20260904095728 78 147 3.5 6.1 0.00 0.00 0.00 73 1012.9
20260904095646 78 150 3.5 6.1 0.00 0.00 0.00 73 1012.9
20260904095543 78 154 4.3 6.1 0.00 0.00 0.00 74 1012.9
20260904095441 78 145 3.5 6.1 0.00 0.00 0.00 73 1012.9
20260904095400 78 148 3.5 6.1 0.00 0.00 0.00 73 1012.9
20260904095238 78 138 5.2 6.1 0.00 0.00 0.00 73 1012.9
20260904095139 78 151 5.2 6.1 0.00 0.00 0.00 73 1012.9
20260904095038 78 140 4.3 6.1 0.00 0.00 0.00 73 1012.9
20260904094937 78 147 3.5 6.1 0.00 0.00 0.00 73 1012.9
20260904094855 78 143 3.5 6.1 0.00 0.00 0.00 73 1012.9
20260904094733 78 136 3.5 7.0 0.00 0.00 0.00 73 1012.9
20260904094702 78 144 3.5 7.0 0.00 0.00 0.00 73 1012.9
20260904094539 78 147 4.3 7.0 0.00 0.00 0.00 74 1012.9
20260904094441 78 160 4.3 7.0 0.00 0.00 0.00 74 1012.9
20260904094400 78 150 4.3 7.0 0.00 0.00 0.00 74 1012.9
20260904094257 78 138 4.3 7.0 0.00 0.00 0.00 74 1012.9
20260904094135 78 136 3.5 7.0 0.00 0.00 0.00 74 1012.9
20260904094033 78 151 2.6 7.0 0.00 0.00 0.00 74 1012.9
20260904093931 78 144 5.2 7.0 0.00 0.00 0.00 74 1012.9
20260904093829 78 144 5.2 7.0 0.00 0.00 0.00 74 1012.9
20260904093728 78 137 4.3 7.0 0.00 0.00 0.00 74 1012.9
20260904093648 78 133 4.3 7.0 0.00 0.00 0.00 74 1012.9
20260904093530 78 143 3.5 7.0 0.00 0.00 0.00 74 1012.9
20260904093429 78 144 4.3 7.0 0.00 0.00 0.00 74 1012.9
20260904093327 78 144 5.2 7.0 0.00 0.00 0.00 74 1012.9
20260904093237 78 140 5.2 6.1 0.00 0.00 0.00 74 1012.9
20260904093146 78 143 3.5 6.1 0.00 0.00 0.00 74 1012.9
20260904093043 78 144 3.5 6.1 0.00 0.00 0.00 74 1012.9
20260904092942 78 145 5.2 6.1 0.00 0.00 0.00 74 1012.9
20260904092846 78 144 2.6 6.1 0.00 0.00 0.00 74 1012.9
20260904092742 78 151 3.5 6.1 0.00 0.00 0.00 74 1013.8
20260904092641 78 144 5.2 6.1 0.00 0.00 0.00 74 1013.8
20260904092539 78 138 5.2 6.1 0.00 0.00 0.00 74 1013.8
20260904092458 78 140 4.3 6.1 0.00 0.00 0.00 73 1013.8
20260904092336 78 141 3.5 7.0 0.00 0.00 0.00 73 1013.8
20260904092234 78 145 3.5 7.8 0.00 0.00 0.00 73 1013.8
20260904092133 78 136 4.3 7.8 0.00 0.00 0.00 74 1013.8
20260904092035 78 107 5.2 7.8 0.00 0.00 0.00 74 1013.8
20260904091954 78 136 5.2 7.8 0.00 0.00 0.00 74 1013.8
20260904091832 78 144 5.2 7.8 0.00 0.00 0.00 74 1013.8
20260904091730 78 131 4.3 7.8 0.00 0.00 0.00 74 1013.8
20260904091659 78 140 3.5 7.8 0.00 0.00 0.00 73 1013.8
20260904091537 79 123 5.2 7.8 0.00 0.00 0.00 74 1013.8
20260904091456 79 143 5.2 8.7 0.00 0.00 0.00 73 1013.8
20260904091336 79 145 4.3 8.7 0.00 0.00 0.00 73 1013.8
20260904091259 79 128 5.2 8.7 0.00 0.00 0.00 74 1013.6
20260904091136 79 138 4.3 8.7 0.00 0.00 0.00 74 1013.6
20260904091036 79 143 3.5 8.7 0.00 0.00 0.00 74 1013.6
20260904090932 79 133 3.5 8.7 0.00 0.00 0.00 73 1013.6
20260904090832 79 144 5.2 8.7 0.00 0.00 0.00 73 1013.6
20260904090731 79 137 6.1 8.7 0.00 0.00 0.00 73 1013.6
20260904090630 79 144 5.2 8.7 0.00 0.00 0.00 73 1013.6
20260904090532 79 127 5.2 8.7 0.00 0.00 0.00 73 1013.6
20260904090430 79 133 5.2 8.7 0.00 0.00 0.00 73 1013.6
20260904090329 79 144 5.2 8.7 0.00 0.00 0.00 73 1013.6
20260904090246 79 141 6.1 8.7 0.00 0.00 0.00 73 1013.6
20260904090156 79 134 6.1 8.7 0.00 0.00 0.00 73 1013.6
20260904090032 79 143 6.1 7.0 0.00 0.00 0.00 73 1013.6
20260904085930 79 138 3.5 7.0 0.00 0.00 0.00 73 1013.6
20260904085834 79 143 5.2 7.0 0.00 0.00 0.00 73 1013.6
20260904085733 79 171 3.5 7.0 0.00 0.00 0.00 73 1013.7
20260904085631 79 136 4.3 7.0 0.00 0.00 0.00 73 1013.7
20260904085530 79 126 5.2 7.0 0.00 0.00 0.00 73 1013.7
20260904085427 79 143 3.5 7.0 0.00 0.00 0.00 73 1013.7
20260904085324 79 136 5.2 7.0 0.00 0.00 0.00 73 1013.7
20260904085243 79 143 5.2 7.0 0.00 0.00 0.00 73 1013.7
20260904085125 79 144 3.5 7.0 0.00 0.00 0.00 73 1013.7
20260904085043 79 148 4.3 7.0 0.00 0.00 0.00 73 1013.7
20260904084941 79 148 6.1 7.0 0.00 0.00 0.00 73 1013.7
20260904084840 79 138 4.3 7.0 0.00 0.00 0.00 73 1013.7
20260904084738 79 137 5.2 7.0 0.00 0.00 0.00 73 1013.7
20260904084645 79 138 4.3 7.0 0.00 0.00 0.00 73 1013.7
20260904084541 79 138 4.3 7.0 0.00 0.00 0.00 73 1013.7
20260904084440 79 155 2.6 7.0 0.00 0.00 0.00 73 1013.7
20260904084400 78 152 4.3 7.0 0.00 0.00 0.00 72 1013.7
20260904084221 78 150 4.3 7.0 0.00 0.00 0.00 73 1013.7
20260904084144 79 151 4.3 7.0 0.00 0.00 0.00 73 1013.7
20260904084102 78 148 4.3 7.0 0.00 0.00 0.00 73 1013.7
20260904083940 78 147 5.2 7.0 0.00 0.00 0.00 73 1013.7
20260904083859 78 143 4.3 7.0 0.00 0.00 0.00 73 1013.7
20260904083737 78 147 5.2 7.0 0.00 0.00 0.00 73 1013.7
20260904083635 78 148 3.5 6.1 0.00 0.00 0.00 73 1013.7
20260904083554 78 152 4.3 6.1 0.00 0.00 0.00 73 1013.7
20260904083436 79 147 5.2 6.1 0.00 0.00 0.00 73 1013.7
20260904083336 79 145 5.2 6.1 0.00 0.00 0.00 73 1013.7
20260904083207 79 145 4.3 6.1 0.00 0.00 0.00 73 1013.7
20260904083103 79 144 4.3 6.1 0.00 0.00 0.00 74 1013.7
20260904082941 79 147 5.2 6.1 0.00 0.00 0.00 74 1013.7
20260904082839 79 141 5.2 6.1 0.00 0.00 0.00 74 1013.7
20260904082737 79 148 4.3 6.1 0.00 0.00 0.00 74 1013.6
20260904082639 79 148 4.3 6.1 0.00 0.00 0.00 73 1013.6
20260904082539 79 143 4.3 6.1 0.00 0.00 0.00 74 1013.6
20260904082437 79 148 5.2 6.1 0.00 0.00 0.00 73 1013.6
20260904082336 79 150 3.5 7.0 0.00 0.00 0.00 73 1013.6
20260904082234 79 144 4.3 7.0 0.00 0.00 0.00 73 1013.6
20260904082134 79 145 4.3 7.0 0.00 0.00 0.00 73 1013.6
20260904082033 79 148 4.3 7.0 0.00 0.00 0.00 74 1013.6
20260904081956 79 134 4.3 7.0 0.00 0.00 0.00 73 1013.6
20260904081833 79 133 3.5 7.0 0.00 0.00 0.00 73 1013.6
20260904081743 79 144 3.5 7.0 0.00 0.00 0.00 73 1013.6
20260904081652 79 140 4.3 7.0 0.00 0.00 0.00 73 1013.6
20260904081529 79 143 5.2 7.0 0.00 0.00 0.00 73 1013.6
20260904081449 79 138 5.2 6.1 0.00 0.00 0.00 73 1013.6
20260904081327 79 136 4.3 6.1 0.00 0.00 0.00 73 1013.6
20260904081225 79 137 4.3 6.1 0.00 0.00 0.00 74 1013.5
20260904081125 79 141 4.3 6.1 0.00 0.00 0.00 74 1013.5
20260904081023 79 136 4.3 6.1 0.00 0.00 0.00 74 1013.5
20260904080942 79 134 4.3 6.1 0.00 0.00 0.00 74 1013.5
20260904080842 79 136 4.3 6.1 0.00 0.00 0.00 73 1013.5
20260904080740 79 134 4.3 6.1 0.00 0.00 0.00 73 1013.5
20260904080639 79 133 4.3 6.1 0.00 0.00 0.00 73 1013.5
20260904080558 79 133 4.3 6.1 0.00 0.00 0.00 73 1013.5
20260904080455 79 136 3.5 5.2 0.00 0.00 0.00 73 1013.5
20260904080336 79 137 3.5 5.2 0.00 0.00 0.00 73 1013.5
20260904080255 79 134 4.3 5.2 0.00 0.00 0.00 72 1013.5
20260904080226 79 136 3.5 6.1 0.00 0.00 0.00 72 1013.5
20260904080041 79 138 3.5 6.1 0.00 0.00 0.00 73 1013.5
20260904075939 79 138 2.6 6.1 0.00 0.00 0.00 73 1013.5
20260904075859 79 140 2.6 6.1 0.00 0.00 0.00 72 1013.5
20260904075738 79 140 3.5 6.1 0.00 0.00 0.00 72 1013.5
20260904075636 79 131 4.3 6.1 0.00 0.00 0.00 72 1013.5
20260904075539 79 141 3.5 6.1 0.00 0.00 0.00 72 1013.5
20260904075437 79 136 3.5 6.1 0.00 0.00 0.00 72 1013.5
20260904075355 79 133 4.3 6.1 0.00 0.00 0.00 72 1013.5
20260904075233 79 134 4.3 6.1 0.00 0.00 0.00 72 1013.5
20260904075132 79 137 3.5 6.1 0.00 0.00 0.00 72 1013.5
20260904075030 79 134 4.3 6.1 0.00 0.00 0.00 72 1013.5
20260904074948 79 131 4.3 6.1 0.00 0.00 0.00 72 1013.5
20260904074845 79 131 4.3 6.1 0.00 0.00 0.00 72 1013.5
20260904074728 79 126 4.3 6.1 0.00 0.00 0.00 72 1013.5
20260904074656 79 124 4.3 6.1 0.00 0.00 0.00 72 1013.5
20260904074534 79 128 4.3 6.1 0.00 0.00 0.00 72 1013.5
20260904074433 79 127 5.2 6.1 0.00 0.00 0.00 73 1013.5
20260904074331 79 128 5.2 6.1 0.00 0.00 0.00 73 1013.5
20260904074229 79 127 5.2 6.1 0.00 0.00 0.00 73 1013.6
20260904074128 79 128 5.2 6.1 0.00 0.00 0.00 73 1013.6
20260904074027 79 130 4.3 6.1 0.00 0.00 0.00 73 1013.6
20260904073949 79 128 4.3 6.1 0.00 0.00 0.00 73 1013.6
20260904073827 79 134 4.3 6.1 0.00 0.00 0.00 73 1013.6
20260904073725 79 137 5.2 6.1 0.00 0.00 0.00 73 1013.6
20260904073643 79 134 4.3 6.1 0.00 0.00 0.00 73 1013.6
20260904073541 79 128 4.3 6.1 0.00 0.00 0.00 73 1013.6
20260904073440 79 134 5.2 6.1 0.00 0.00 0.00 73 1013.6
20260904073336 79 124 4.3 6.1 0.00 0.00 0.00 73 1013.6
20260904073254 79 134 5.2 6.1 0.00 0.00 0.00 73 1013.6
20260904073224 79 138 4.3 6.1 0.00 0.00 0.00 73 1013.6
20260904073104 79 133 3.5 6.1 0.00 0.00 0.00 73 1013.6
20260904072921 79 136 3.5 6.1 0.00 0.00 0.00 73 1013.6
20260904072843 79 133 3.5 6.1 0.00 0.00 0.00 73 1013.6
20260904072741 79 131 5.2 6.1 0.00 0.00 0.00 73 1013.6
20260904072700 79 134 4.3 6.1 0.00 0.00 0.00 73 1013.6
20260904072538 79 133 4.3 6.1 0.00 0.00 0.00 73 1013.6
20260904072436 79 131 4.3 6.1 0.00 0.00 0.00 73 1013.6
20260904072339 79 131 3.5 6.1 0.00 0.00 0.00 73 1013.6
20260904072237 79 130 3.5 6.1 0.00 0.00 0.00 73 1013.6
20260904072155 79 136 4.3 7.0 0.00 0.00 0.00 73 1013.6
20260904072032 79 140 3.5 7.0 0.00 0.00 0.00 74 1013.6
20260904071930 79 138 4.3 7.0 0.00 0.00 0.00 73 1013.6
20260904071829 79 140 4.3 7.0 0.00 0.00 0.00 73 1013.6
20260904071727 79 133 3.5 7.0 0.00 0.00 0.00 73 1013.6
20260904071656 79 130 4.3 7.0 0.00 0.00 0.00 73 1013.6
20260904071538 79 140 5.2 7.0 0.00 0.00 0.00 73 1013.6
20260904071437 79 134 5.2 7.0 0.00 0.00 0.00 73 1013.6
20260904071335 79 128 5.2 7.0 0.00 0.00 0.00 73 1013.6
20260904071233 79 124 5.2 6.1 0.00 0.00 0.00 73 1013.7
20260904071152 79 127 5.2 6.1 0.00 0.00 0.00 73 1013.7
20260904071033 79 133 4.3 6.1 0.00 0.00 0.00 72 1013.7
20260904070933 79 128 4.3 6.1 0.00 0.00 0.00 72 1013.7
20260904070835 79 119 5.2 6.1 0.00 0.00 0.00 72 1013.7
20260904070734 79 124 4.3 6.1 0.00 0.00 0.00 72 1013.7
20260904070633 79 133 4.3 6.1 0.00 0.00 0.00 72 1013.7
20260904070533 79 133 5.2 6.1 0.00 0.00 0.00 72 1013.7
20260904070433 79 120 4.3 6.1 0.00 0.00 0.00 72 1013.7
20260904070352 79 128 5.2 6.1 0.00 0.00 0.00 72 1013.7